[[[{"header":{"parameterUnit":"kt","parameterCategory":2,"dx":1,"dy":1,"la1":29.285339999999998,"la2":30.599998999999997,"lo1":-89.70041500000002,"lo2":-87.6738589999976,"nx":112,"ny":82,"refTime":"2022-10-28T06:00:00:Z","depth":0,"parameterNumber":1,"parameterNumberName":"U-component_of_WINDS"},"data":[1.0881,1.0821,0.0,0.8015,0.7213,0.0,0.4912,0.5258,0.5965,0.6095,0.6745,0.7649,0.882,0.8214,0.7711,0.8246,0.8174,0.7652,0.0,0.6277,0.6288,0.6426,0.5307,0.5049,0.6341,0.0,0.0,0.0,0.0,0.0,0.0,0.0,0.1549,0.0044,0.0,0.0,0.0,0.0,0.0,0.0,0.0,0.0,0.0,0.0,0.0,0.0,0.0,0.0,0.0,0.0,0.0,0.0,0.0,0.0,0.0,0.0,0.0,0.0,0.0,0.0,0.0,0.0,0.0,0.0,0.0,0.0,0.0,0.0,0.0,0.0,0.0,0.0,0.0,0.0,-0.0654,-0.1265,-0.1265,-0.309,-0.4735,-0.4735,-0.5949,-0.6522,-0.5009,-0.4056,-0.2706,-0.0349,0.0,0.0,0.0,-0.1311,-0.2593,-0.3529,-0.4298,-0.4714,-0.4539,-0.3114,-0.1975,-0.1309,-0.1235,-0.2375,-0.4887,-0.3381,-0.3303,-0.5081,-0.3401,-0.2107,-0.1368,-0.1295,-0.0833,0.0,0.0,0.0,0.0,0.0,1.1801,0.9087,0.8802,0.8545,0.607,0.635,0.6932,0.6179,0.7075,0.7766,0.7015,0.73,0.7405,0.6668,0.7048,0.7081,0.0,0.5495,0.5189,0.5169,0.3993,0.3309,0.0,0.0,0.0,0.0,0.0,0.0,0.0,0.2421,0.1588,0.0044,0.0,0.0,0.0,0.0,0.0,0.0,0.0,0.0,0.0,0.0,0.0,0.0,0.0,0.0,0.0,0.0,0.0,0.0,0.0,0.0,0.0,0.0,0.0,0.0,0.0,0.0,0.0,0.0,0.0,0.0,0.0,0.0,0.0,0.0,0.0,0.0,0.0,0.0,0.0,0.0,0.0,0.0,0.0,-0.1221,-0.2309,-0.2309,-0.357,-0.4137,-0.2577,-0.2315,-0.1791,-0.0218,0.0,-0.0306,-0.1092,-0.2534,-0.4129,-0.583,-0.6769,-0.7556,-0.8232,-0.536,-0.2508,-0.0132,0.0,-0.0773,-0.2521,-0.09,-0.0818,-0.2545,-0.0867,0.0,0.0,0.0,0.0,0.0,0.0,0.0,1.1966,1.1965,1.1823,0.8035,0.7839,0.8021,0.5831,0.6974,0.8173,0.7061,0.862,0.9669,0.8044,0.8135,0.7923,0.6283,0.6453,0.0,0.0,0.6016,0.499,0.363,0.2897,0.0,0.0,0.0,0.0,0.0,0.0,0.0,0.3345,0.1305,0.0082,0.0,0.0,0.0,0.0,0.0,0.0,0.0,0.0,0.0,0.0,0.0,0.0,0.0,0.0,0.0,0.0,0.0,0.0,0.0,0.0,0.0,0.0,0.0,0.0,0.0,0.0,0.0,0.0,0.0,0.0,0.0,0.0,0.0,0.0,0.0,0.0,0.0,0.0,0.0,0.0,0.0,0.0,0.0,0.0,0.0,0.0,0.0,0.0,0.0,0.0,0.0,0.0,0.0,0.0,-0.083,-0.319,-0.3583,-0.5488,-1.0334,-0.8697,-0.8217,-1.0653,-0.6431,-0.2605,-0.027,-0.0045,0.0,0.0,0.0,0.0,0.0,0.0,0.0,0.0,0.0,0.0,0.0,0.0,0.0,1.0331,1.0222,1.0184,0.9102,0.9043,0.8878,0.7419,0.719,0.732,0.7479,0.7343,0.0,0.0,0.0,0.6068,0.579,0.0,0.6225,0.5371,0.6015,0.5634,0.3098,0.0,0.0,0.0,0.0,0.0,0.0,0.0,0.0,0.106,0.1943,0.1755,0.0044,0.0,0.0,0.0,0.0,0.0,0.0,0.0,0.0,0.0,0.0,0.0,0.0,0.0,0.0,0.0,0.0,0.0,0.0,0.0,0.0,0.0,0.0,0.0,0.0,0.0,0.0,0.0,0.0,0.0,0.0,0.0,0.0,0.0,0.0,0.0,0.0,0.0,0.0,0.0,0.0,0.0,0.0,0.0,0.0,0.0,0.0,0.0,0.0,0.0,0.0,0.0,0.0,0.0,-0.083,-0.319,-0.4966,-0.7202,-1.0286,-1.1669,-1.1877,-1.0686,-0.797,-0.5235,-0.2696,-0.0957,0.0,0.0,0.0,0.0,0.0,0.0,0.0,0.0,0.0,0.0,0.0,0.0,0.0,1.1467,1.1264,1.127,0.9357,0.9907,1.0244,0.7638,0.7132,0.7179,0.7065,0.0,0.0,0.0,0.0,0.0,0.0,0.4166,0.4074,0.416,0.4017,0.3646,0.2998,0.0,0.0,0.0,0.0,0.0,0.0,0.0,0.2375,0.1498,0.1812,0.142,0.0043,0.0,0.0,0.0,0.0,0.0,0.0,0.0,0.0,0.0,0.0,0.0,0.0,0.0,0.0,0.0,0.0,0.0,-0.0191,-0.1976,-0.2139,-0.1314,-0.1416,-0.0829,0.0,0.0,0.0,0.0,0.0,0.0,0.0,0.0,0.0,0.0,0.0,0.0,0.0,0.0,0.0,0.0,0.0,0.0,0.0,0.0,0.0,0.0,0.0,0.0,0.0,0.0,0.0,0.0,0.0,0.0,-0.0829,-0.3181,-0.4687,-0.6793,-1.0129,-1.0987,-1.1089,-1.0526,-0.7566,-0.5102,-0.3593,-0.1298,0.0,0.0,0.0,0.0,0.0,0.0,0.0,0.0,0.0,0.0,0.0,0.0,0.0,1.3686,1.3313,1.3233,0.9409,1.0423,1.1311,0.7347,0.0,0.7418,0.6302,0.0,0.4833,0.3704,0.0,0.0,0.2422,0.1282,0.1255,0.3009,0.0966,0.0248,0.2807,0.3499,0.0,0.0,0.0924,0.1987,0.3004,0.2136,0.2017,0.3056,0.1139,0.0,0.0,0.0,0.0,0.0,0.0,0.0,0.0,0.0,0.0,0.0,0.0,0.0,0.0,0.0,0.0,0.0,-0.0267,-0.0343,-0.069,-0.4285,-0.4487,-0.2796,-0.3035,-0.1783,0.0,0.0,0.0,0.0,0.0,0.0,0.0,0.0,0.0,0.0,0.0,0.0,0.0,0.0,0.0,0.0,0.0,0.0,0.0,0.0,0.0,0.0,0.0,0.0,0.0,0.0,0.0,0.0,0.0,0.0,-0.0829,-0.3214,-0.3508,-0.519,-0.963,-0.822,-0.7741,-0.9536,-0.5904,-0.3388,-0.311,-0.1136,0.0,0.0,0.0,0.0,0.0,0.0,0.0,0.0,0.0,0.0,0.0,0.0,0.0,1.2169,1.105,1.0546,1.1244,1.0392,0.9321,0.0,0.0,0.0,0.6497,0.5502,0.4516,0.3663,0.2942,0.1815,-0.0276,0.0,0.0,0.0,-0.0752,0.0,0.0401,0.0,0.0,0.0,0.0208,0.0413,0.0662,0.0456,0.0455,0.0659,0.0251,0.0,0.0,0.0,0.0,0.0,0.0,0.0,0.0,0.0,0.0,0.0,0.0,0.0,0.0,0.0,0.0,-0.0114,-0.183,-0.2514,-0.2412,-0.1566,-0.0992,-0.0588,-0.0636,-0.0387,0.0,0.0,0.0,0.0,0.0,0.0,0.0,0.0,0.0,0.0,0.0,0.0,0.0,0.0,0.0,0.0,0.0,0.0,0.0,0.0,0.0,0.0,0.0,0.0,0.0,0.0,0.0,0.0,0.0,0.0,-0.0829,-0.3219,-0.3519,-0.4559,-0.7371,-0.7247,-0.6401,-0.4975,-0.4036,-0.27,-0.0806,-0.0242,0.0,0.0,0.0,0.0,0.0,0.0,0.0,0.0,0.0,0.0,0.0,0.0,0.0,1.3205,1.1923,1.1181,1.1561,1.0728,0.0,0.0,0.7783,0.6485,0.5706,0.4287,0.2989,0.227,0.2025,0.1453,-0.0051,-0.0719,-0.0757,0.0165,-0.1174,-0.1362,0.1008,0.0,0.0,0.0086,0.0,0.0,0.0,0.0,0.0,0.0,0.0,0.0,0.0,0.0,0.0,0.0,0.0,0.0,0.0,0.0,0.0,0.0,0.0,0.0,0.0,0.0,0.0,-0.0076,-0.1105,-0.2163,-0.3125,-0.3276,-0.259,-0.1564,-0.1709,-0.0994,0.0,0.0,0.0,0.0,0.0,0.0,0.0,0.0,0.0,0.0,0.0,0.0,0.0,0.0,0.0,0.0,0.0,0.0,0.0,0.0,0.0,0.0,0.0,0.0,0.0,0.0,0.0,0.0,0.0,0.0,-0.0443,-0.1592,-0.174,-0.2647,-0.4973,-0.4199,-0.3513,-0.3515,-0.2424,-0.1258,-0.0097,0.0,0.0,0.0,0.0,0.0,0.0,0.0,0.0,0.0,0.0,0.0,0.0,0.0,0.0,1.4267,1.3077,1.229,1.1748,1.1003,0.0,0.864,0.6986,0.5459,0.4381,0.292,0.1574,0.0775,0.1221,0.1342,0.0148,-0.119,-0.1735,-0.0764,-0.0892,-0.0307,0.1797,0.0,0.0,0.0126,0.0,0.0,0.0,0.0,0.0,0.0,0.0,0.0,0.0,0.0,0.0,0.0,0.0,0.0,0.0,0.0,0.0,0.0,0.0,0.0,0.0,0.0,0.0,-0.0038,-0.0423,-0.1341,-0.2673,-0.4601,-0.4182,-0.2549,-0.2755,-0.1607,0.0,0.0,0.0,0.0,0.0,0.0,0.0,0.0,0.0,0.0,0.0,0.0,0.0,0.0,0.0,0.0,0.0,0.0,0.0,0.0,0.0,0.0,0.0,0.0,0.0,0.0,0.0,0.0,0.0,0.0,0.0,0.0,0.0,-0.0741,-0.2638,-0.1127,-0.076,-0.2667,-0.1064,0.0,0.0,0.0,0.0,0.0,0.0,0.0,0.0,0.0,0.0,0.0,0.0,0.0,0.0,0.0,0.0,1.2862,1.1878,1.1348,1.3082,1.0722,0.0,0.8725,0.6756,0.4364,0.2761,0.2251,0.1678,0.0337,0.0181,-0.0495,-0.2672,-0.3182,-0.254,-0.0406,-0.0122,-0.0041,0.0252,0.0247,0.0,0.0,0.0,0.0,0.0,0.0,0.0,0.0,0.0,0.0,0.0,0.0,0.0,0.0,0.0,0.0,0.0,0.0,0.0,0.0,0.0,0.0,0.0,0.0,0.0,-0.0158,-0.2006,-0.1819,-0.0379,-0.0633,-0.0556,-0.0347,-0.0384,-0.0215,0.0,0.0,0.0,0.0,0.0,0.0,0.0,0.0,0.0,0.0,0.0,0.0,0.0,0.0,0.0,0.0,0.0,0.0,0.0,0.0,0.0,0.0,0.0,0.0,0.0,0.0,0.0,0.0,0.0,0.0,0.0,0.0,0.0,-0.0093,-0.0371,-0.0139,-0.0094,-0.0381,-0.0143,0.0,0.0,0.0,0.0,0.0,0.0,0.0,0.0,0.0,0.0,0.0,0.0,0.0,0.0,0.0,0.0,1.274,1.1956,1.1362,1.2232,0.0,0.0,0.798,0.6001,0.3829,0.2415,0.1472,0.0726,0.0123,0.0,-0.0318,-0.1309,-0.1451,-0.1125,-0.0125,0.0,0.0,0.0,0.0,0.0,0.0,0.0,0.0,0.0,0.0,0.0,0.0,0.0,0.0,0.0,0.0,0.0,0.0,0.0,0.0,0.0,0.0,0.0,0.0,0.0,0.0,0.0,0.0,0.0,-0.0081,-0.0941,-0.0796,0.0,0.0,0.0,0.0,0.0,0.0,0.0,0.0,0.0,0.0,0.0,0.0,0.0,0.0,0.0,0.0,0.0,0.0,0.0,0.0,0.0,0.0,0.0,0.0,0.0,0.0,0.0,0.0,0.0,0.0,0.0,0.0,0.0,0.0,0.0,0.0,0.0,0.0,0.0,0.0,0.0,0.0,0.0,0.0,0.0,0.0,0.0,0.0,0.0,0.0,0.0,0.0,0.0,0.0,0.0,0.0,0.0,0.0,0.0,0.0,0.0,1.3002,0.0,0.0,0.0,0.0,0.0,0.7463,0.5105,0.2742,0.175,0.0735,0.0,0.0,0.0,0.0,0.0,0.0,0.0,0.0,0.0,0.0,0.0,0.0,0.0,0.0,0.0,0.0,0.0,0.0,0.0,0.0,0.0,0.0,0.0,0.0,0.0,0.0,0.0,0.0,0.0,0.0,0.0,0.0,0.0,0.0,0.0,0.0,0.0,0.0,0.0,0.0,0.0,0.0,0.0,0.0,0.0,0.0,0.0,0.0,0.0,0.0,0.0,0.0,0.0,0.0,0.0,0.0,0.0,0.0,0.0,0.0,0.0,0.0,0.0,0.0,0.0,0.0,0.0,0.0,0.0,0.0,0.0,0.0,0.0,0.0,0.0,0.0,0.0,0.0,0.0,0.0,0.0,0.0,0.0,0.0,0.0,0.0,0.0,0.0,0.0,0.0,0.0,0.0,0.0,0.0,0.0,0.0,0.0,0.0,0.0,0.0,0.0,0.0,0.0,0.0,1.3672,1.0072,0.6401,0.7519,0.4177,0.0708,0.0192,0.004,0.0,0.0,0.0,0.0,0.0,0.0,0.0,0.0,0.0,0.0,0.0,0.0,0.0,0.0,0.0,0.0,0.0,0.0,0.0,0.0,0.0,0.0,0.0,0.0,0.0,0.0,0.0,0.0,0.0,0.0,0.0,0.0,0.0,0.0,0.0,0.0,0.0,0.0,0.0,0.0,0.0,0.0,0.0,0.0,0.0,0.0,0.0,0.0,0.0,0.0,0.0,0.0,0.0,0.0,0.0,0.0,0.0,0.0,0.0,0.0,0.0,0.0,0.0,0.0,0.0,0.0,0.0,0.0,0.0,0.0,0.0,0.0,0.0,0.0,0.0,0.0,0.0,0.0,0.0,0.0,0.0,0.0,0.0,0.0,0.0,0.0,0.0,0.0,0.0,0.0,0.0,0.0,0.0,0.0,0.0,0.0,0.0,0.0,0.0,0.0,0.0,1.5319,1.515,1.4877,1.5048,1.3249,1.0615,0.7364,0.5252,0.3227,0.0549,0.0,0.0,0.0,0.0,0.0,0.0,0.0,0.0,0.0,0.0,0.0,0.0,0.0,0.0,0.0,0.0,0.0,0.0,0.0,0.0,0.0,0.0,0.0,0.0,0.0,0.0,0.0,0.0,0.0,0.0,0.0,0.0,0.0,0.0,0.0,0.0,0.0,0.0,0.0,0.0,0.0,0.0,0.0,0.0,0.0,0.0,0.0,0.0,0.0,0.0,0.0,0.0,0.0,0.0,0.0,0.0,0.0,0.0,0.0,0.0,0.0,0.0,0.0,0.0,0.0,0.0,0.0,0.0,0.0,0.0,0.0,0.0,0.0,0.0,0.0,0.0,0.0,0.0,0.0,0.0,0.0,0.0,0.0,0.0,0.0,0.0,0.0,0.0,0.0,0.0,0.0,0.0,0.0,0.0,0.0,0.0,0.0,0.0,0.0,0.0,0.0,0.0,1.6565,1.5855,1.4798,1.5472,1.3875,1.11,0.708,0.5422,0.3835,0.0647,0.0,0.0,0.0,0.0,0.0,0.0,0.0,0.0,0.0,0.0,0.0,0.0,0.0,0.0,0.0,0.0,0.0,0.0,0.0,0.0,0.0,0.0,0.0,0.0,0.0,0.0,0.0,0.0,0.0,0.0,0.0,0.0,0.0,0.0,0.0,0.0,0.0,0.0,0.0,0.0,0.0,0.0,0.0,0.0,0.0,0.0,0.0,0.0,0.0,0.0,0.0,0.0,0.0,0.0,0.0,0.0,0.0,0.0,0.0,0.0,0.0,0.0,0.0,0.0,0.0,0.0,0.0,0.0,0.0,0.0,0.0,0.0,0.0,0.0,0.0,0.0,0.0,0.0,0.0,0.0,0.0,0.0,0.0,0.0,0.0,0.0,0.0,0.0,0.0,0.0,0.0,0.0,0.0,0.0,0.0,0.0,0.0,0.0,0.0,0.0,0.0,0.0,1.7191,1.4916,1.2365,1.5068,1.2296,0.8466,0.6789,0.4798,0.2667,0.0463,0.0,0.0,0.0,0.0,0.0,0.0,0.0,0.0,0.0,0.0,0.0,0.0,0.0,0.0,0.0,0.0,0.0,0.0,0.0,0.0,0.0,0.0,0.0,0.0,0.0,0.0,0.0,0.0,0.0,0.0,0.0,0.0,0.0,0.0,0.0,0.0,0.0,0.0,0.0,0.0,0.0,0.0,0.0,0.0,0.0,0.0,0.0,0.0,0.0,0.0,0.0,0.0,0.0,0.0,0.0,0.0,0.0,0.0,0.0,0.0,0.0,0.0,0.0,0.0,0.0,0.0,0.0,0.0,0.0,0.0,0.0,0.0,0.0,0.0,0.0,0.0,0.0,0.0,0.0,0.0,0.0,0.0,0.0,0.0,0.0,0.0,0.0,0.0,0.0,0.0,0.0,0.0,0.0,0.0,0.0,0.0,0.0,0.0,0.0,0.0,0.0,0.0,1.8745,1.844,1.7355,1.6064,1.4745,1.2487,0.7649,0.6123,0.4632,0.0799,0.0,0.0,0.0,0.0,0.0,0.0,0.0,0.0,0.0,0.0,0.0,0.0,0.0,0.0,0.0,0.0,0.0,0.0,0.0,0.0,0.0,0.0,0.0,0.0,0.0,0.0,0.0,0.0,0.0,0.0,0.0,0.0,0.0,0.0,0.0,0.0,0.0,0.0,0.0,0.0,0.0,0.0,0.0,0.0,0.0,0.0,0.0,0.0,0.0,0.0,0.0,0.0,0.0,0.0,0.0,0.0,0.0,0.0,0.0,0.0,0.0,0.0,0.0,0.0,0.0,0.0,0.0,0.0,0.0,0.0,0.0,0.0,0.0,0.0,0.0,0.0,0.0,0.0,0.0,0.0,0.0,0.0,0.0,0.0,0.0,0.0,0.0,0.0,0.0,0.0,0.0,0.0,0.0,0.0,0.0,0.0,0.0,0.0,0.0,0.0,0.0,0.0,1.8972,1.8251,1.7202,1.5836,1.4108,1.1602,0.7349,0.5671,0.4118,0.0698,0.0,0.0,0.0,0.0,0.0,0.0,0.0,0.0,0.0,0.0,0.0,0.0,0.0,0.0,0.0,0.0,0.0,0.0,0.0,0.0,0.0,0.0,0.0,0.0,0.0,0.0,0.0,0.0,0.0,0.0,0.0,0.0,0.0,0.0,0.0,0.0,0.0,0.0,0.0,0.0,0.0,0.0,0.0,0.0,0.0,0.0,0.0,0.0,0.0,0.0,0.0,0.0,0.0,0.0,0.0,0.0,0.0,0.0,0.0,0.0,0.0,0.0,0.0,0.0,0.0,0.0,0.0,0.0,0.0,0.0,0.0,0.0,0.0,0.0,0.0,0.0,0.0,0.0,0.0,0.0,0.0,0.0,0.0,0.0,0.0,0.0,0.0,0.0,0.0,0.0,0.0,0.0,0.0,0.0,0.0,0.0,0.0,0.0,0.0,0.0,0.0,0.0,1.9764,1.7778,1.6013,1.5325,1.2106,0.8575,0.6486,0.4515,0.2503,0.0436,0.0,0.0,0.0,0.0,0.0,0.0,0.0,0.0,0.0,0.0,0.0,0.0,0.0,0.0,0.0,0.0,0.0,0.0,0.0,0.0,0.0,0.0,0.0,0.0,0.0,0.0,0.0,0.0,0.0,0.0,0.0,0.0,0.0,0.0,0.0,0.0,0.0,0.0,0.0,0.0,0.0,0.0,0.0,0.0,0.0,0.0,0.0,0.0,0.0,0.0,0.0,0.0,0.0,0.0,0.0,0.0,0.0,0.0,0.0,0.0,0.0,0.0,0.0,0.0,0.0,0.0,0.0,0.0,0.0,0.0,0.0,0.0,0.0,0.0,0.0,0.0,0.0,0.0,0.0,0.0,0.0,0.0,0.0,0.0,0.0,0.0,0.0,0.0,0.0,0.0,0.0,0.0,0.0,0.0,0.0,0.0,0.0,0.0,0.0,0.0,0.0,0.0,2.6006,2.5111,2.304,1.672,1.2106,0.8575,0.6486,0.4503,0.2539,0.0435,0.0,0.0,0.0,0.0,0.0,0.0,0.0,0.0,0.0,0.0,0.0,0.0,0.0,0.0,0.0,0.0,0.0,0.0,0.0,0.0,0.0,0.0,0.0,0.0,0.0,0.0,0.0,0.0,0.0,0.0,0.0,0.0,0.0,0.0,0.0,0.0,0.0,0.0,0.0,0.0,0.0,0.0,0.0,0.0,0.0,0.0,0.0,0.0,0.0,0.0,0.0,0.0,0.0,0.0,0.0,0.0,0.0,0.0,0.0,0.0,0.0,0.0,0.0,0.0,0.0,0.0,0.0,0.0,0.0,0.0,0.0,0.0,0.0,0.0,0.0,0.0,0.0,0.0,0.0,0.0,0.0,0.0,0.0,0.0,0.0,0.0,0.0,0.0,0.0,0.0,0.0,0.0,0.0,0.0,0.0,0.0,0.0,0.0,0.0,0.0,0.0,0.0,2.6971,2.6234,2.4359,1.83,1.3025,0.8757,0.6521,0.4607,0.3767,0.5431,0.356,0.1822,0.2502,0.2075,0.1258,0.0191,0.0,0.0,0.0,0.0,0.0,0.0,0.0,0.0,0.0,0.0,0.0,0.0,0.0,0.0,0.0,0.0,0.0,0.0,0.0,0.0,0.0,0.0,0.0,0.0,0.0,0.0,0.0,0.0,0.0,0.0,0.0,0.0,0.0,0.0,0.0,0.0,0.0,0.0,0.0,0.0,0.0,0.0,0.0,0.0,0.0,0.0,0.0,0.0,0.0,0.0,0.0,0.0,0.0,0.0,0.0,0.0,0.0,0.0,0.0,0.0,0.0,0.0,0.0,0.0,0.0,0.0,0.0,0.0,0.0,0.0,0.0,0.0,0.0,0.0,0.0,0.0,0.0,0.0,0.0,0.0,0.0,0.0,0.0,0.0,0.0,0.0,0.0,0.0,0.1323,0.2009,0.2009,0.3377,0.413,0.4269,0.4256,0.4254,2.7029,2.6668,2.5556,2.0564,1.548,1.093,0.801,0.6202,0.6169,0.9712,0.6932,0.4106,0.5099,0.4085,0.259,0.0954,0.0305,0.0,0.0,0.0,0.0,0.0,0.0,0.0,0.0,0.0,0.0,0.0,0.0,0.0,0.0,0.0,0.0,0.0,0.0,0.0,0.0,0.0,0.0,0.0,0.0,0.0,0.0,0.0,0.0,0.0,0.0,0.0,0.0,0.0,0.0,0.0,0.0,0.0,0.0,0.0,0.0,0.0,0.0,0.0,0.0,0.0,0.0,0.0,0.0,0.0,0.0,0.0,0.0,0.0,0.0,0.0,0.0,0.0,0.0,0.0,0.0,0.0,0.0,0.0,0.0,0.0,0.0,0.0,0.0,0.0,0.0,0.0,0.0,0.0,0.0,0.0,0.0,0.0,0.0,0.0,0.0,0.0,0.0,0.0,0.0,0.1079,0.1666,0.1666,0.3669,0.4742,0.4742,0.6783,0.7931,0.8178,0.8128,0.8144,2.9045,3.0104,3.0612,2.4292,2.0683,1.7442,1.2592,1.1023,1.0178,0.8735,0.7195,0.6072,0.5965,0.4402,0.3047,0.2857,0.122,0.0,0.0,0.0,0.0,0.0,0.0,0.0,0.0,0.0,0.0,0.0,0.0,0.0,0.0,0.0,0.0,0.0,0.0,0.0,0.0,0.0,0.0,0.0,0.0,0.0,0.0,0.0,0.0,0.0,0.0,0.0,0.0,0.0,0.0,0.0,0.0,0.0,0.0,0.0,0.0,0.0,0.0,0.0,0.0,0.0,0.0,0.0,0.0,0.0,0.0,0.0,0.0,0.0,0.0,0.0,0.0,0.0,0.0,0.0,0.0,0.0,0.0,0.0,0.0,0.0,0.0,0.0,0.0,0.0,0.0,0.0,0.0,0.0,0.0,0.0,0.0,0.0,0.0,0.0,0.0,0.0,0.0,0.0,0.0,0.4547,0.7076,0.7076,0.7319,0.7416,0.7416,0.766,0.7931,0.8178,0.7927,0.8151,2.7196,2.8858,2.9742,2.3707,2.2386,2.1366,1.6835,1.6431,1.6414,1.4321,1.1021,0.8721,0.9299,0.8672,0.6966,0.3644,0.3077,0.2316,0.0304,0.0,0.0,0.0,0.0,0.0,0.0,0.0,0.0,0.0,0.0,0.0,0.0,0.0,0.0,0.0,0.0,0.0,0.0,0.0,0.0,0.0,0.0,0.0,0.0,0.0,0.0,0.0,0.0,0.0,0.0,0.0,0.0,0.0,0.0,0.0,0.0,0.0,0.0,0.0,0.0,0.0,0.0,0.0,0.0,0.0,0.0,0.0,0.0,0.0,0.0,0.0,0.0,0.0,0.0,0.0,0.0,0.0,0.0,0.0,0.0,0.0,0.0,0.0,0.0,0.0,0.0,0.0,0.1356,0.2888,0.4498,0.4693,0.4693,0.4693,0.4693,0.4028,0.2488,0.234,0.1695,0.01,0.1495,0.307,0.4644,0.6689,0.7757,0.7757,0.9321,1.0103,1.0103,1.171,1.2612,1.295,1.3033,1.3195,2.5596,2.7491,2.8894,2.39,2.3763,2.4021,2.0897,2.1156,2.1511,1.9513,1.5114,1.1756,1.2295,1.1788,0.9815,0.5351,0.4875,0.3868,0.0494,0.0,0.0,0.0,0.0,0.0,0.0,0.0,0.0,0.0,0.0,0.0,0.0,0.0,0.0,0.0,0.0,0.0,0.0,0.0,0.0,0.0,0.0,0.0,0.0,0.0,0.0,0.0,0.0,0.0,0.0,0.0,0.0,0.0,0.0,0.0,0.0,0.0,0.0,0.0,0.0,0.0,0.0,0.0,0.0,0.0,0.0,0.0,0.0,0.0,0.0,0.0,0.0,0.0,0.0,0.0,0.0,0.0,0.0,0.0,0.0,0.0,0.0,0.0237,0.1007,0.0529,0.0529,0.2065,0.3201,0.4838,0.7416,0.7757,0.7757,0.7757,0.7757,0.7017,0.5176,0.5034,0.4239,0.2447,0.4039,0.6189,0.8838,0.9657,1.0124,1.0229,1.2059,1.3004,1.3004,1.4823,1.5908,1.6248,1.6361,1.6552,2.4998,2.6964,2.9185,2.6022,2.5438,2.5464,2.4781,2.4832,2.4541,2.2866,1.8754,1.5226,1.4323,1.2592,1.0585,0.8469,0.6404,0.3868,0.0494,0.0,0.0,0.0,0.0,0.0,0.0,0.0,0.0,0.0,0.0,0.0,0.0,0.0,0.0,0.0,0.0,0.0,0.0,0.0,0.0,0.0,0.0,0.0,0.0,0.0,0.0,0.0,0.0,0.0,0.0,0.0,0.0,0.0,0.0,0.0,0.0,0.0,0.0,0.0,0.0,0.0,0.0,0.0,0.0,0.0,0.0,0.0,0.0,0.0,0.0,0.0,0.0,0.0,0.0,0.0,0.0,0.0,0.0,0.0,0.0,0.0,0.0,0.0834,0.3424,0.1715,0.1764,0.6929,0.5519,0.4838,0.7416,0.7757,0.7757,0.7757,0.7757,0.7757,0.7757,0.7757,0.7708,0.7712,0.7712,0.8932,1.1526,1.4112,1.5672,1.6066,1.6073,1.6073,1.6073,1.6123,1.6261,1.6526,1.6255,1.6541,2.2115,2.5475,2.8959,2.7711,2.9137,3.0906,3.1259,3.0505,2.8952,2.6181,2.2464,1.8768,1.5803,1.2838,0.9972,0.7143,0.5789,0.3868,0.0494,0.0,0.0,0.0,0.0,0.0,0.0,0.0,0.0,0.0,0.0,0.0,0.0,0.0,0.0,0.0,0.0,0.0,0.0,0.0,0.0,0.0,0.0,0.0,0.0,0.0,0.0,0.0,0.0,0.0,0.0,0.0,0.0,0.0,0.0,0.0,0.0,0.0,0.0,0.0,0.0,0.0,0.0,0.0,0.0,0.0,0.0,0.0,0.0,0.0,0.0,0.0,0.0,0.0,0.0,0.0,0.0,0.0,0.0,0.0,0.0,0.0,0.1421,0.2937,0.3767,0.4691,0.586,0.7514,0.8591,0.9519,1.035,1.2006,1.3078,1.3078,1.3078,1.2359,1.0584,1.0448,0.9651,0.7908,1.11,1.3471,1.4306,1.5135,1.5721,1.6123,1.6129,1.6222,1.6407,1.6407,1.6453,1.6539,1.6607,1.6811,2.2515,2.5445,2.8598,2.9556,3.1638,3.3849,3.5329,3.3665,3.1024,2.84,2.5071,2.171,1.8475,1.5474,1.2018,0.7559,0.6657,0.5,0.061,0.0,0.0,0.0,0.0,0.0,0.0,0.0,0.0,0.0,0.0,0.0,0.0,0.0,0.0,0.0,0.0,0.0,0.0,0.0,0.0,0.0,0.0,0.0,0.0,0.0,0.0,0.0,0.0,0.0,0.0,0.0,0.0,0.0,0.0,0.0,0.0,0.0,0.0,0.0,0.0,0.0,0.0,0.0,0.0,0.0,0.0,0.0,0.0,0.0,0.0,0.0,0.0,0.0,0.0,0.0,0.0,0.029,0.1272,0.147,0.1764,0.2742,0.4254,0.5667,0.6643,0.7371,0.8438,1.0439,1.1273,1.2011,1.2986,1.4548,1.5528,1.5528,1.5528,1.4913,1.325,1.3113,1.2466,1.0817,1.3751,1.5528,1.5528,1.5688,1.5934,1.6275,1.6394,1.6482,1.6653,1.6653,1.6653,1.666,1.6844,1.6943,2.5184,2.6398,2.818,3.129,3.2945,3.4459,3.6866,3.45,3.1237,2.9384,2.6723,2.4056,2.193,1.9796,1.6207,0.9559,0.8527,0.6622,0.1043,0.0116,0.0,0.0,0.0,0.0,0.0,0.0,0.0,0.0,0.0,0.0,0.0,0.0,0.0,0.0,0.0,0.0,0.0,0.0,0.0,0.0,0.0,0.0,0.0,0.0,0.0,0.0,0.0,0.0,0.0,0.0,0.0,0.0,0.0,0.0,0.0,0.0,0.0,0.0,0.0,0.0,0.0,0.0,0.0,0.0,0.0,0.0,0.0,0.0,0.0,0.0046,0.0237,0.0287,0.0336,0.0537,0.054,0.1226,0.3669,0.4156,0.4887,0.7319,0.7903,0.8831,1.1229,0.9807,1.0001,1.4844,1.3477,1.2792,1.5238,1.5528,1.5528,1.5528,1.5528,1.5528,1.5528,1.5528,1.5528,1.5528,1.5528,1.5541,1.5609,1.5928,1.6362,1.6865,1.7096,1.7362,1.7613,1.7613,1.7626,1.7647,1.7647,1.7698,2.3208,2.5307,2.818,3.129,3.2945,3.3977,3.4608,3.3608,3.1644,2.8351,2.732,2.6167,2.3383,2.1866,1.9026,1.2747,0.7809,0.4283,0.2873,0.1131,0.0,0.0,0.0,0.0,0.0,0.0,0.0,0.0,0.0,0.0,0.0,0.0,0.0,0.0,0.0,0.0,0.0,0.0,0.0,0.0,0.0,0.0,0.0,0.0,0.0,0.0,0.0,0.0,0.0,0.0,0.0,0.0,0.0,0.0,0.0,0.0,0.0,0.0,0.0,0.0,0.0,0.0,0.0,0.0,0.0,0.0,0.0,0.0,0.0,0.0473,0.2466,0.2965,0.3503,0.5465,0.5958,0.6104,0.6735,0.6884,0.7027,0.766,0.937,1.0938,1.1574,1.2792,1.4155,1.5383,1.5044,1.4844,1.548,1.5528,1.5528,1.5528,1.5528,1.5528,1.5528,1.5528,1.5528,1.5528,1.5528,1.5681,1.5961,1.609,1.7405,2.003,2.0176,2.1569,2.4369,2.4369,2.4578,2.4981,2.4981,2.3743,2.4378,2.6074,2.818,3.129,3.1789,3.1748,3.2789,3.199,3.0347,2.7817,2.7716,2.7437,2.5322,2.3372,2.1176,1.846,1.2915,0.8656,0.781,0.4595,0.2334,0.2322,0.0948,0.0,0.0,0.0,0.0,0.0,0.0,0.0,0.0,0.0,0.0,0.0,0.0,0.0,0.0,0.0,0.0,0.0,0.0,0.0,0.0,0.0,0.0,0.0,0.0,0.0,0.0,0.0,0.0,0.0,0.0,0.0,0.0,0.0,0.0,0.0,0.0,0.0,0.0,0.0,0.0,0.0,0.0,0.0,0.0,0.0,0.1744,0.391,0.531,0.5665,0.6006,0.7416,0.7757,0.8098,0.9321,0.9564,0.9908,1.1123,1.2491,1.3428,1.3428,1.5605,1.7339,1.7339,1.8292,1.9051,1.9051,1.9051,1.9051,1.9051,1.9051,1.9051,1.9051,1.8005,1.7339,1.7339,1.8388,1.9382,2.0107,2.0279,2.1463,2.3835,2.3973,2.5015,2.6989,2.6989,2.7163,2.7392,2.7392,2.652,2.6632,2.7361,2.7985,3.0654,3.0036,2.9263,3.1135,3.0089,2.848,2.7592,2.7695,2.7711,2.6835,2.4369,2.2668,2.3302,1.9366,1.5475,1.3266,0.8626,0.5354,0.5094,0.2064,0.0,0.0,0.0,0.0,0.0,0.0,0.0,0.0,0.0,0.0,0.0,0.0,0.0176,0.0573,0.0571,0.0747,0.1189,0.0744,0.0569,0.0573,0.0176,0.0,0.0,0.0,0.0,0.0,0.0,0.0,0.0,0.0,0.0,0.0,0.0,0.0,0.0,0.0,0.0271,0.0591,0.0601,0.0873,0.1182,0.1203,0.1195,0.1188,0.1184,0.4394,0.7854,0.8247,0.839,0.849,0.8879,0.8973,0.9564,1.1763,1.2593,1.3514,1.5715,1.6439,1.6721,1.6721,1.8532,1.9999,1.9999,2.1798,2.3125,2.3125,2.3446,2.3709,2.3709,2.4028,2.4065,2.3756,2.1771,2.0735,2.1115,2.2718,2.4025,2.4816,2.5153,2.6036,2.7707,2.7977,2.8302,2.8825,2.8825,2.8911,2.8984,2.8984,2.8753,2.7124,2.7157,2.7203,2.7687,2.8296,2.8851,2.9199,2.8442,2.761,2.7439,2.6687,2.608,2.6016,2.4821,2.3034,2.0712,2.0205,1.8794,1.4986,1.026,0.6645,0.5227,0.2068,0.0,0.0,0.0,0.0,0.0,0.0,0.0,0.0,0.0,0.0,0.0,0.0,0.1082,0.3256,0.3066,0.4189,0.654,0.4114,0.306,0.3208,0.0992,0.0,0.0,0.0,0.0,0.0,0.0,0.0,0.0,0.0,0.0,0.0,0.0,0.0,0.0,0.0,0.1444,0.3301,0.3311,0.477,0.6597,0.6573,0.6609,0.6579,0.6573,0.7158,0.8296,1.0496,1.1084,1.1618,1.3864,1.4354,1.4451,1.4893,1.6707,1.8373,1.8764,2.0523,2.1941,2.1941,2.2273,2.2567,2.2567,2.2888,2.3125,2.3125,2.4962,2.626,2.626,2.8017,2.8407,2.6435,2.5923,2.6585,2.8703,2.72,2.584,2.4915,2.5153,2.7063,3.0882,3.0983,3.2459,3.534,3.534,3.5591,3.6167,3.6167,3.4711,2.6181,2.7202,2.835,2.8702,2.8292,2.8163,2.9418,2.8525,2.7414,2.7414,2.6471,2.5699,2.5831,2.4947,2.4344,2.4814,2.4703,2.3604,2.0832,1.471,0.9719,0.7517,0.4229,0.2061,0.1917,0.0756,0.1106,0.3796,0.2828,0.2738,0.4148,0.2853,0.212,0.21,0.0731,0.1925,0.5957,0.5858,0.6452,0.775,0.6433,0.5898,0.5957,0.4759,0.4214,0.4202,0.4208,0.0,0.2081,0.2108,0.1294,0.0,0.0,0.0,0.0,0.0,0.0875,0.2103,0.2122,0.3793,0.5996,0.6006,0.68,0.776,0.7786,1.1894,1.6596,1.6626,1.6356,1.6382,1.7561,1.7856,1.815,1.937,1.9664,1.9664,1.9664,2.0571,2.1428,2.1428,2.2377,2.3125,2.3125,2.4305,2.5245,2.5245,2.7502,2.9217,2.9217,3.1331,3.2821,3.2821,3.3785,3.4009,3.2911,3.4433,3.5334,3.5181,3.4539,3.3395,3.1666,3.2356,3.3134,3.3953,3.4598,3.5709,3.7254,3.7254,3.744,3.77,3.77,3.694,2.7389,0.0,3.0113,3.143,3.0352,2.9341,0.0,2.9812,2.8358,2.7886,2.6663,2.5658,2.5495,2.4614,2.4668,2.6915,2.6975,2.6096,2.4411,1.8865,1.3984,1.1359,0.7882,0.5671,0.5642,0.3348,0.3376,0.7182,0.5835,0.5666,0.7668,0.5897,0.4816,0.4794,0.2853,0.4027,0.8654,0.8612,0.8937,0.9582,0.894,0.862,0.8651,0.8055,0.7777,0.7761,0.7773,0.0,0.4824,0.4803,0.3626,0.1819,0.184,0.184,0.1808,0.1835,0.3084,0.4798,0.4818,0.6099,0.7858,0.8499,0.9592,1.0833,1.1453,1.7574,2.426,2.426,2.3925,2.3524,2.3524,2.3524,2.3524,2.3524,2.3524,2.3524,2.3524,2.405,2.4402,2.4242,2.4754,2.509,2.4937,2.7059,2.8732,2.8732,3.2456,3.5218,3.5218,3.7277,3.8722,3.8722,3.9223,3.9311,3.8766,4.1875,4.2835,4.0369,4.1047,4.0737,3.8801,3.9752,3.9422,3.7419,3.8275,3.8406,3.77,3.77,3.77,3.77,3.77,3.77,0.0,3.2946,3.1966,3.5289,3.5355,3.4375,3.3588,3.2546,0.0,2.9249,2.7259,2.5504,2.4432,2.3489,2.249,2.1413,2.278,2.3258,2.1233,2.0726,1.9644,1.7043,1.3275,1.1195,1.1905,0.9081,0.7348,0.7712,0.7601,0.7582,0.7776,0.7582,0.7476,0.7499,0.7325,0.8555,1.138,1.1134,1.2374,1.4974,1.2284,1.1134,1.1327,0.8889,0.7752,0.0,0.7787,0.766,0.0,0.7497,0.738,0.7206,0.7197,0.7223,0.7237,0.7203,0.7361,0.7512,0.7492,0.7637,0.8181,1.0589,1.5006,1.978,2.2188,2.3819,2.4806,2.4806,2.4786,2.4766,2.4766,2.4766,2.4766,2.4766,2.4766,2.4766,2.4766,2.6637,2.8173,2.7598,2.9416,3.0867,3.0297,3.2237,3.3877,3.3877,3.6042,3.7676,3.7676,3.9733,4.1173,4.1173,4.3101,4.3506,4.1346,4.4789,4.6085,4.3714,4.4451,4.4344,4.2968,4.3687,4.331,4.1579,4.164,4.0352,3.77,3.77,3.77,3.77,3.77,3.77,3.4414,3.5786,3.7192,3.7526,3.7938,3.7602,3.5266,3.441,3.3165,2.9665,2.7747,2.618,2.4427,2.4227,2.4433,2.4793,2.5502,2.5123,2.2552,2.2173,2.0568,1.6219,1.5078,1.3861,1.1962,1.1194,1.1237,1.2273,1.101,1.088,1.2539,1.1079,1.0945,1.2561,1.2642,1.3078,1.4064,1.3963,1.4498,1.5528,1.4434,1.3963,1.4058,1.3086,1.261,1.2642,1.2857,1.204,0.0,1.0545,0.9571,0.7984,0.7842,0.7881,0.8212,1.0009,1.1829,1.3585,1.5374,1.7053,1.8579,1.9598,2.1345,2.3321,2.432,2.6949,2.9698,3.008,2.9938,2.9578,2.9578,2.9578,2.9556,2.9175,2.9104,2.9009,2.8594,2.9282,2.9895,2.9685,3.042,3.1486,3.2795,3.38,3.4918,3.6355,3.859,4.0083,4.0083,4.2118,4.3592,4.3592,4.491,4.561,4.518,4.7057,4.7916,4.7027,4.8258,4.8228,4.6432,4.7129,4.6632,4.4714,4.2882,4.1476,4.0352,3.8574,3.77,3.77,3.77,3.77,3.8173,4.0195,4.1873,4.1914,4.2028,4.1231,3.7702,3.663,3.4953,2.9922,2.8024,2.6705,2.4809,2.4643,2.5277,2.6804,2.7265,2.631,2.3101,2.2636,2.0996,1.6702,1.703,1.663,1.4067,1.3627,1.4032,1.52,1.3813,1.3671,1.548,1.387,1.3719,1.548,1.5528,1.5622,1.5721,1.5629,1.5629,1.5721,1.5622,1.5528,1.5534,1.5681,1.5721,1.5741,1.6129,1.5189,1.3498,1.357,1.2447,1.0776,1.1572,1.2017,1.2502,1.5351,1.762,1.9549,2.153,2.3382,2.4905,2.4905,2.5301,2.5882,2.6235,2.9497,3.3086,3.3539,3.3369,3.3008,3.3008,3.2878,3.2693,3.2316,3.2082,3.1787,3.1351,3.126,3.1429,3.2036,3.2134,3.2837,3.5113,3.6147,3.7143,3.8766,4.1016,4.2506,4.2506,4.4175,4.5345,4.5345,4.6128,4.6963,4.7799,4.8634,4.926,4.9573,5.0893,5.1175,5.004,5.0762,5.0032,4.7709,4.5748,4.4293,4.3307,4.0267,3.8864,3.9052,3.794,3.7622,4.6158,4.6626,4.5449,4.891,4.8222,4.5538,4.1223,3.934,3.6658,3.0121,2.8039,2.6986,2.5546,2.442,2.4271,2.5963,2.6879,2.6024,2.213,2.198,2.1529,1.942,1.9645,1.9775,1.9316,1.701,1.5528,1.5528,1.5528,1.5528,1.5528,1.5528,1.5528,1.5528,1.5528,1.5721,1.6123,1.5727,1.5727,1.6123,1.5721,1.5528,1.5541,1.5941,1.6129,1.6142,1.642,1.6387,0.0,1.6477,1.6431,1.6547,1.961,2.0838,2.1149,2.3907,2.4915,2.4915,2.4965,2.4965,2.4965,2.4965,2.6286,2.807,2.9253,3.177,3.4228,3.4228,3.4228,3.4228,3.4228,3.3799,3.3432,3.3419,3.2927,3.2463,3.2463,3.245,3.304,3.4843,3.5212,3.5794,3.7626,3.9881,4.1451,4.1468,4.3457,4.4942,4.4942,4.5749,4.6261,4.6305,4.7001,4.7837,4.8764,4.9526,5.0352,5.1283,5.207,5.2905,5.3842,5.466,5.3738,5.0893,5.0787,4.9263,4.6306,4.2754,4.1374,4.1889,3.839,3.7397,4.4558,4.7439,5.0868,4.9985,4.9914,4.8138,4.0702,3.9957,3.8294,2.9384,2.7915,2.7633,2.5647,2.4931,2.5019,2.6082,2.5074,2.3362,2.1181,1.9925,1.8415,1.6332,1.6561,1.7735,1.9853,1.7331,1.5528,1.5528,1.5528,1.5528,1.5528,1.5528,1.5528,1.5528,1.5528,1.5622,1.5708,1.5622,1.5622,1.5708,1.5622,1.5528,1.5541,1.5941,1.6129,1.6156,1.6587,1.7647,0.0,1.9616,2.0666,2.2135,2.3251,2.3768,2.432,2.7096,2.8275,2.8705,3.077,3.1455,3.1455,3.1455,3.1852,3.2395,3.2734,3.3204,3.3771,3.4111,3.4228,3.4137,3.3784,3.3213,3.268,3.2277,3.2056,3.1774,3.1312,3.2609,3.3977,3.4512,3.594,3.7985,4.082,4.2346,4.3971,4.626,4.7666,4.8266,4.7704,4.7882,4.7806,4.7172,4.836,5.0034,5.2031,5.0815,5.1054,5.3611,5.2993,5.3695,5.6488,5.7348,5.736,5.6503,5.4515,5.2121,4.9387,4.3832,4.1443,4.1889,3.8877,3.7786,4.7625,5.0194,5.3311,5.1023,5.0997,4.9403,4.1401,4.0713,3.9071,2.9393,2.804,2.8075,2.6404,2.5791,2.6145,2.7969,2.7096,2.5511,2.3704,2.2853,2.13,1.8432,1.8376,1.9331,2.1317,1.9703,1.8149,1.7154,1.6149,1.6432,1.8484,1.8572,1.8572,1.8572,1.8572,1.8643,1.8825,1.8643,1.8643,1.8776,1.7639,1.7106,1.7121,1.7717,1.7971,1.805,1.9473,2.078,0.0,2.2469,2.3408,2.4666,2.6234,2.7004,2.7441,3.0362,3.1496,3.1865,3.3587,3.4228,3.4228,3.4228,3.4228,3.4228,3.4228,3.3994,3.3838,3.4371,3.4358,3.4202,3.406,3.3592,3.3008,3.2498,3.2803,3.3169,3.2986,3.4963,3.7079,3.8038,3.9337,4.1243,4.4125,4.5335,4.6549,4.8515,4.9469,4.9669,4.8889,4.9079,4.8919,4.8064,5.1268,5.4189,5.6096,5.4508,5.4413,5.6751,5.6023,5.6591,5.9016,5.9965,6.0446,6.0446,5.8749,5.6602,5.4006,4.869,4.5306,4.3651,4.0727,3.9093,5.3655,5.4216,5.4028,5.2456,5.184,4.9823,4.2774,4.1571,3.9287,2.992,2.837,2.8508,2.7824,2.7159,2.7757,3.0867,3.1287,3.0408,2.8092,2.8273,2.7217,2.3585,2.3125,2.3125,2.3125,2.3125,2.2187,1.9959,1.758,1.8244,2.2888,2.3125,2.3125,2.3125,2.3125,2.3311,2.3634,2.3321,2.3321,2.3634,2.1015,1.9768,1.9793,2.0668,2.1089,2.1207,2.3723,2.478,0.0,2.5142,2.5234,2.5564,2.9006,3.0331,3.0653,3.3279,3.4228,3.4228,3.4228,3.4228,3.4228,3.4228,3.4189,3.415,3.415,3.415,3.4216,3.4709,3.4553,3.4293,3.4735,3.4656,3.4349,3.3834,3.4875,3.616,3.6641,3.8811,4.1398,4.3509,4.4095,4.498,4.7192,4.8349,4.9003,4.9003,4.9773,5.0067,4.9441,4.9968,5.0234,4.9753,5.5109,5.9199,6.0487,5.9466,5.9175,6.0298,6.0177,6.0545,6.153,6.2675,6.332,6.332,6.3407,6.217,5.9582,5.5751,5.1624,4.7226,4.4077,4.1333,5.6455,5.7029,5.8198,5.6497,5.4417,5.0655,4.2849,4.2067,4.0167,3.0071,2.8946,2.9817,2.9848,3.003,3.0605,3.1853,3.1189,2.9851,2.7902,2.5764,2.4108,2.3227,2.3125,2.3125,2.3125,2.3125,2.2936,2.2368,2.1846,2.1988,2.3087,2.3125,2.3125,2.3125,2.3125,2.3174,2.3262,2.3174,2.3174,2.3262,2.2605,2.233,2.2339,2.2879,2.3096,2.3125,2.395,2.5232,0.0,2.785,2.9229,3.0926,3.2634,3.3279,3.3382,3.3959,3.4228,3.4228,3.4228,3.4228,3.4228,3.4228,3.3929,3.3615,3.3615,3.3615,3.3641,3.3721,3.3994,3.4163,3.3838,3.5184,3.648,3.584,3.7599,3.9435,3.9531,4.1445,4.3326,4.3848,4.5435,4.7079,4.8304,4.9782,5.0789,5.0789,5.2062,5.3133,5.3461,5.3657,5.452,5.6353,5.7838,5.9885,6.2901,6.0427,5.9862,6.2605,6.1108,6.1342,6.4152,6.6144,6.7248,6.7248,6.8003,6.7151,6.4559,5.8791,5.5643,5.4975,4.9757,4.5971,5.9121,5.967,6.0548,5.7969,5.6227,5.3336,4.6585,4.4966,4.2605,3.4431,3.2089,3.1363,3.0802,3.1686,3.288,3.3957,3.46,3.4666,3.3783,3.1949,3.0576,3.026,3.0246,2.9799,2.865,2.8523,2.7548,2.5188,2.5,2.6559,3.005,3.0246,3.0408,3.0758,3.0771,3.0993,3.1453,3.1453,3.1453,3.1406,3.0621,2.9978,2.9602,3.0081,3.0082,2.973,3.0702,3.1104,3.1213,3.2073,3.2438,3.2592,3.3735,3.4228,3.4228,3.4228,3.4228,3.4228,3.4228,3.4228,3.4481,3.6268,3.6629,3.6404,3.6404,3.6669,3.6775,3.5775,3.5777,3.606,3.6148,3.6919,3.7894,3.8506,4.0022,4.1519,4.256,4.4878,4.685,4.685,4.7796,4.891,4.9858,5.1026,5.188,5.188,5.3951,5.5346,5.4895,5.5898,5.8294,6.244,6.3351,6.4613,6.7013,6.4559,6.3636,6.5296,6.4263,6.4429,6.617,6.8844,7.0269,7.0269,7.1291,7.054,6.7982,6.4618,6.109,5.7493,5.4634,5.0316,6.1894,6.2478,6.2426,5.9183,5.8028,5.6226,5.0884,4.8672,4.6171,4.05,3.7077,3.4891,3.4117,3.4864,3.613,3.7759,3.9788,4.0987,4.0451,3.9652,3.8826,3.8007,3.7898,3.7159,3.5218,3.4993,3.3321,2.9204,2.9025,3.1814,3.8011,3.8341,3.8643,3.9268,3.9284,3.9667,4.0435,4.0451,4.05,4.063,3.9195,3.816,3.7457,3.7964,3.7733,3.6951,3.8373,0.0,3.613,3.6671,3.5823,3.4297,3.5237,3.5685,3.5766,3.5657,3.5617,3.5552,3.5393,3.5366,3.5909,3.9065,4.0037,3.9926,3.9926,4.0372,4.0513,3.8812,3.8551,3.8923,3.947,3.9558,3.9935,4.1638,4.2818,4.3991,4.5738,4.8284,5.0238,5.039,5.0409,5.0636,5.1386,5.207,5.2468,5.2317,5.4596,5.6032,5.5336,5.7967,6.1873,6.6916,6.8364,6.9408,7.0378,6.8624,6.736,6.7189,6.736,6.753,6.7725,7.0844,7.2697,7.2893,7.3895,7.3363,7.1226,7.0706,6.6663,5.9463,5.9352,5.4838,6.5071,6.5924,6.5145,6.3071,6.0691,5.7441,5.1945,5.1483,5.0823,4.6011,4.4108,4.3914,4.5897,4.4344,4.334,4.5127,4.5552,4.4545,4.1506,4.06,3.963,3.8099,3.7898,3.781,3.7499,3.7454,3.7172,3.6517,3.7104,3.8244,3.9988,4.0129,4.0161,4.0259,4.0259,4.0307,4.0451,4.0451,4.0807,4.1456,4.1186,4.1074,4.0946,4.1026,4.061,3.9889,4.0105,4.0026,3.9764,4.0309,4.0784,4.124,4.1135,4.1525,4.2046,4.1368,4.1148,4.1005,4.0215,3.9964,4.0172,4.1425,4.1477,4.0978,4.0978,4.109,4.1075,4.0834,4.1166,4.1658,4.1754,4.3395,4.5082,4.5365,4.7219,4.9016,4.9301,5.0274,5.133,5.2002,5.2134,5.2172,5.2286,5.24,5.2279,5.1557,5.183,5.3242,5.641,6.1598,6.5565,6.7291,6.8364,6.9046,6.9192,6.814,6.7043,6.6159,6.6945,6.7872,6.8754,7.192,7.4114,7.5139,7.6214,7.6576,7.6252,7.3709,7.0655,6.7094,6.4702,6.0074,6.3748,6.628,6.7272,6.5384,6.3928,6.2097,5.868,5.7153,5.5676,5.2961,5.0212,4.8291,4.8267,4.8443,4.827,4.7226,4.854,4.8566,4.5169,4.411,4.3223,4.2,4.1833,4.1294,3.9996,3.9848,3.9505,3.8624,4.1814,4.396,4.4361,4.4379,4.4379,4.4379,4.4852,4.513,4.513,4.5593,4.5938,4.6324,4.6818,4.68,4.6259,4.6259,4.5831,4.5094,0.0,4.363,4.2438,4.2934,4.2612,4.1848,4.2073,4.2377,4.2668,4.2297,4.2184,4.2136,4.1717,4.3193,4.5283,4.513,4.4929,4.4739,4.4739,4.504,4.5143,4.3617,4.3779,4.4354,4.4354,4.5196,4.6438,4.7883,4.9129,5.0105,5.0646,5.1026,5.1538,5.2305,5.2457,5.2658,5.3152,5.3915,5.4339,5.3964,5.5854,5.7991,5.985,6.3338,6.6373,6.8108,6.9311,6.9746,6.9046,6.8067,6.7238,6.6774,6.775,6.8823,6.9941,7.3089,7.5115,7.5579,7.6678,7.7165,7.7165,7.5909,7.3824,7.0978,6.9743,6.5023,6.0543,6.4121,6.6556,6.6163,6.611,6.5617,6.3796,6.2187,6.0669,5.9288,5.6473,5.3759,5.2063,5.2694,5.2813,5.0854,5.2177,5.2486,4.99,4.8766,4.7778,4.6718,4.6268,4.5345,4.3597,4.3148,4.2903,4.2857,4.5906,4.7829,4.8057,4.8076,4.8076,4.8076,4.9353,5.0029,5.0029,5.1226,5.161,5.1205,5.1909,5.1555,5.0314,5.0314,5.0197,4.9963,4.8642,4.7427,4.6402,4.614,4.5157,4.3799,4.4073,4.4277,4.4477,4.4226,4.4159,4.4159,4.4159,4.6336,4.9003,4.8285,4.8076,4.8076,4.8076,4.8558,4.8662,4.6597,4.6538,4.7033,4.7033,4.7033,4.7548,4.948,5.0143,5.0466,5.1159,5.1633,5.2157,5.2715,5.3,5.3342,5.4038,5.5138,5.5999,5.5999,5.8935,6.1777,6.3476,6.5273,6.7207,6.9227,7.0454,7.0817,6.992,6.914,6.8555,6.8311,6.9286,7.0381,7.1501,7.4163,7.5725,7.6019,7.675,7.7165,7.7165,7.7165,7.5682,7.2878,7.2878,6.89,5.5954,5.9059,6.11,6.5097,6.611,6.5617,6.3796,6.4976,6.5884,6.3837,6.3458,6.3128,6.2047,5.9322,5.7773,5.9331,5.7872,5.6196,5.5312,5.4168,5.2877,5.1352,4.998,4.9084,4.8998,4.7825,4.8764,5.2795,5.0396,4.9033,4.9802,4.9793,4.9793,4.9793,5.2138,5.3384,5.3384,5.5639,5.6039,5.4544,5.4632,5.3461,5.1235,5.1235,5.2058,5.3246,5.0854,5.1095,5.2981,5.0639,5.0132,5.0726,4.9876,5.0064,5.0782,4.9876,4.9575,4.9575,4.9575,4.9698,4.9916,4.9859,4.9793,4.9793,4.9793,4.9878,4.9868,4.9727,4.9698,4.9736,4.9736,4.9736,4.9783,4.9925,5.0646,5.1235,5.1292,5.2594,5.3715,5.3753,5.4399,5.4879,5.4936,5.5532,5.5999,5.5999,5.761,6.0884,6.6487,6.8157,6.9297,7.0548,7.1599,7.2233,7.2185,7.2111,7.1625,7.0674,7.1552,7.2601,7.3675,7.4944,7.6092,7.7067,7.7141,7.7165,7.7165,7.7165,7.5682,7.2878,7.2878,7.1166,5.5145,5.7896,5.977,6.5329,6.6684,6.6755,6.6943,6.7284,6.7536,6.7598,6.6269,6.5144,6.5628,6.3649,6.1619,6.064,5.9803,5.844,5.6139,5.5485,5.4788,5.3669,5.3047,5.3012,5.3675,5.4928,5.633,5.7845,5.6823,5.5973,5.5605,5.6193,5.5964,5.4614,5.6096,5.6572,5.5885,5.6716,5.6889,5.6329,5.6329,5.5874,5.5071,5.5071,5.5341,5.584,5.4982,5.5072,5.584,5.4936,5.3884,5.2768,5.245,5.1918,5.1197,5.0295,5.0333,5.076,5.0162,4.9944,4.9944,4.9944,4.9944,4.9944,4.9944,4.9944,4.9944,4.9944,4.9944,4.9944,4.9944,4.9944,5.0124,5.0703,5.1083,5.1595,5.2708,5.3411,5.3981,5.4513,5.4803,5.4993,5.4993,5.658,5.8784,6.1422,6.3839,6.6353,6.92,7.0478,7.1552,7.2626,7.3089,7.3016,7.238,7.2331,7.2185,7.1772,7.2723,7.3797,7.4944,7.6067,7.6774,7.7165,7.7165,7.7165,7.7165,7.7165,7.6664,7.5632,7.5632,7.4081,5.1118,5.4027,5.6681,6.2908,6.5438,6.6631,6.7502,6.7969,6.8283,6.8466,6.7439,6.6583,6.6767,6.5447,6.3795,6.2177,6.1897,6.1053,5.8567,5.8556,5.8283,5.6937,5.7056,5.7348,5.7659,6.0007,6.1658,6.1971,6.0604,5.9437,5.8758,5.902,5.856,5.7206,5.8579,5.9048,5.8314,5.9149,5.9564,5.9564,5.871,5.8358,5.8292,5.7518,5.7563,5.827,5.7518,5.7607,5.827,5.7474,5.6245,5.4821,5.4821,5.4206,5.3106,5.1727,5.2229,5.3531,5.2702,5.2403,5.2403,5.2403,5.2403,5.2403,5.2403,5.2403,5.2218,5.1419,5.1204,5.1017,5.0161,4.9944,5.02,5.1083,5.15,5.2089,5.3525,5.4038,5.4399,5.4898,5.4993,5.5286,5.6177,5.7757,6.033,6.4497,6.6607,6.8453,7.0481,7.1989,7.3236,7.431,7.4456,7.431,7.3992,7.3919,7.3919,7.3919,7.4603,7.531,7.6116,7.6824,7.7165,7.7165,7.7165,7.7165,7.7165,7.7165,7.7165,7.7165,7.7165,7.6186,4.3874,4.7285,5.149,5.7688,6.2064,6.4856,6.4972,6.6979,6.8247,6.6318,6.73,6.7925,6.5909,6.4897,6.4381,6.4321,6.4346,6.3955,6.2864,6.3711,6.3613,6.1489,6.2025,6.2137,6.101,6.2902,6.4571,6.5593,6.1555,5.8984,5.8986,5.802,5.745,5.7385,5.9608,6.0802,6.0778,6.3115,6.4346,6.4346,6.1897,6.0778,6.0692,5.8403,5.8623,6.0649,5.8358,5.8666,6.0606,5.8292,5.734,5.7252,5.7252,5.7229,5.6938,5.4705,5.5776,5.8291,5.7423,5.7162,5.7162,5.7162,5.7162,5.7162,5.7162,5.7162,5.6672,5.4386,5.3766,5.3169,5.0708,5.0086,5.0333,5.1188,5.1956,5.2791,5.3677,5.4494,5.4993,5.4993,5.4993,5.5835,5.8468,5.9003,6.0401,6.4543,6.5314,6.6708,7.0395,7.2673,7.4358,7.553,7.5652,7.6067,7.7067,7.7165,7.7165,7.7165,7.7165,7.7165,7.7165,7.7165,7.7165,7.7165,7.7165,7.7141,7.7116,7.7141,7.7141,7.7116,7.7141,7.7165,4.6915,4.7767,4.9056,5.6226,5.8109,5.8952,6.1687,6.2878,6.401,6.6304,6.6698,6.6598,6.6378,6.5716,6.499,6.4449,6.4346,6.4492,6.4939,6.5256,6.5524,6.5652,6.5913,6.6218,6.6631,6.7995,6.9002,6.9291,6.7358,6.5833,6.5098,6.479,6.3936,6.2418,6.373,6.4077,6.335,6.3962,6.4346,6.4346,6.3645,6.335,6.3308,6.2626,6.2734,6.3308,6.2626,6.2734,6.3266,6.2649,6.1298,5.9672,5.9672,5.9003,5.8032,5.8514,5.9263,5.9729,5.7828,5.7162,5.7162,5.7162,5.7162,5.7162,5.7162,5.7162,5.7029,5.6358,5.62,5.5615,5.3261,5.3048,5.3247,5.2348,5.281,5.3715,5.4481,5.4841,5.4993,5.4993,5.4993,5.608,5.943,6.0936,6.2781,6.5903,6.9296,7.1796,7.2848,7.4236,7.5555,7.6653,7.6776,7.6848,7.7141,7.7165,7.7165,7.7165,7.7165,7.7165,7.7165,7.7165,7.7165,7.7165,7.7165,7.6824,7.6043,7.6824,7.675,7.6067,7.6849,7.7165,4.3781,4.3866,4.412,4.9076,5.057,5.2059,5.6945,5.8489,5.9971,6.3838,6.4859,6.5351,6.6185,6.5473,6.4727,6.4782,6.4937,6.5078,6.5207,6.6335,6.7091,6.6823,6.7579,6.853,6.9649,6.9917,7.0015,7.0015,6.8579,6.7433,6.6823,6.6403,6.5598,6.437,6.4932,6.4956,6.4346,6.4346,6.4346,6.4346,6.4346,6.4346,6.4346,6.4346,6.4346,6.4346,6.4346,6.4346,6.4346,6.4346,6.3476,6.2177,6.2177,6.1648,6.0908,6.1852,6.2177,6.1983,6.0629,6.013,6.013,6.013,6.013,6.013,6.013,6.013,5.9956,5.8886,5.8623,5.8182,5.6284,5.6083,5.6397,5.6352,5.6388,5.6506,5.6602,5.7122,5.7518,5.7322,5.8213,6.0127,6.3787,6.5214,6.6891,7.0071,7.2882,7.4578,7.4578,7.5603,7.6457,7.7092,7.7165,7.7165,7.7165,7.7165,7.7165,7.7165,7.7165,7.7165,7.7165,7.7165,7.7165,7.7165,7.7165,7.6678,7.5603,7.6238,7.5994,7.492,7.5481,7.5774,3.7067,3.759,3.819,3.9475,4.1377,4.4573,0.0,5.2995,5.4896,5.89,6.1135,6.2826,6.4345,6.3811,6.3584,6.4865,6.5481,6.5534,6.4656,6.6896,6.7945,6.5964,6.7555,6.9237,7.028,6.953,6.8997,6.8997,6.7164,6.6012,6.589,6.4908,6.4346,6.4346,6.4346,6.4346,6.4346,6.4444,6.4517,6.4517,6.4639,6.4639,6.4517,6.4517,6.4444,6.4346,6.4346,6.4346,6.4346,6.4346,6.4346,6.4346,6.4346,6.4346,6.4346,6.4346,6.4346,6.4346,6.4346,6.4346,6.4346,6.4346,6.4346,6.4346,6.4346,6.4346,6.3879,6.1684,6.113,6.0888,5.9491,5.9255,5.9801,6.1298,6.0894,6.0074,5.9444,6.0437,6.1302,6.1006,6.298,6.589,6.9527,7.0043,7.1185,7.4816,7.5577,7.5774,7.5774,7.6306,7.6839,7.7141,7.689,7.6839,7.7165,7.7043,7.697,7.697,7.6872,7.6799,7.6799,7.6799,7.6799,7.6799,7.6921,7.6434,7.5237,7.5481,7.4968,7.37,7.3822,7.3748,0.0,0.0,0.0,0.0,0.0,0.0,0.0,4.2629,4.3943,4.9335,5.1551,5.3352,5.6146,5.8912,6.1121,6.2216,6.4194,6.5588,6.5566,6.611,6.6037,6.481,6.65,6.7847,6.8042,6.8677,6.8997,6.8997,6.7872,6.6818,6.5939,6.4908,6.4346,6.4346,6.4346,6.4346,6.4346,6.5158,6.5598,6.5598,6.6452,6.6427,6.5598,6.5598,6.5152,6.4346,6.4346,6.4346,6.4346,6.4346,6.4346,6.4346,6.4346,6.4346,6.4346,6.4346,6.4346,6.4346,6.4346,6.4346,6.4346,6.4346,6.4346,6.4346,6.4346,6.4346,6.4262,6.3753,6.4231,6.4391,6.2239,6.2764,6.3487,6.1985,6.13,6.1187,6.1873,6.2275,6.2737,6.3609,6.4864,6.6943,7.0614,7.053,7.0772,7.3063,7.5371,7.6848,7.6848,7.5032,7.4617,7.694,7.51,7.4668,7.699,7.6409,7.5921,7.5921,7.5017,7.4505,7.4505,7.4505,7.4505,7.4505,7.5457,7.4944,7.2966,7.4749,7.4578,7.2673,7.348,7.2943,0.0,0.0,0.0,0.0,0.0,0.0,0.0,0.0,0.0,0.0,0.0,4.799,5.1449,0.0,5.8056,6.0466,6.2484,6.4182,6.5535,6.539,6.4932,6.4395,6.5231,6.589,6.589,6.6378,6.6652,6.6652,6.6208,6.5646,6.5134,6.4639,6.4346,6.4346,6.4346,6.4346,6.4346,6.4883,6.5646,6.6652,6.6652,6.6652,6.6628,6.6134,6.5347,6.4346,6.4346,6.4346,6.4346,6.4346,6.4346,6.4346,6.4346,6.4346,6.4346,6.4346,6.4346,6.4346,6.4346,6.4346,6.4346,6.4346,6.4346,6.4346,6.4346,6.4712,6.5127,6.5127,6.5866,6.6489,6.5872,6.6395,6.6932,6.6336,6.5245,6.439,6.4759,6.5407,6.6182,6.7098,6.9197,7.1136,7.2032,7.2961,7.3886,7.4882,7.6237,7.7165,7.7165,7.4668,7.2666,7.2014,7.0472,7.0123,7.1774,7.2085,7.3193,7.5481,7.4505,7.387,7.387,7.387,7.387,7.387,7.3895,7.3161,7.1525,7.204,7.1479,6.9917,7.0454,7.0112,0.0,0.0,0.0,0.0,0.0,0.0,0.0,0.0,0.0,0.0,0.0,0.0,0.0,0.0,0.0,5.7913,6.0506,6.2746,6.4827,6.4203,6.3493,6.341,6.3589,6.3711,6.3711,6.3906,6.4028,6.4028,6.4224,6.4248,6.4028,6.4224,6.4346,6.4346,6.4346,6.4346,6.4346,6.4761,6.5793,6.7457,0.0,0.0,6.7408,6.6335,6.5347,6.4346,6.4346,6.4346,6.4346,6.4346,6.4346,6.4346,6.4566,6.4639,6.4688,6.4883,6.481,6.4639,6.4639,6.4517,6.4346,6.4346,6.4346,6.437,6.459,6.5249,0.0,6.6159,6.6945,6.7969,6.8778,6.9168,6.9579,7.0524,6.9063,6.7485,6.7598,6.8546,6.9617,7.054,7.3549,7.5446,7.3992,7.4468,7.4599,7.3289,7.3361,7.3579,7.3579,7.1612,6.9244,6.6591,6.5967,6.632,6.7761,6.752,6.9595,7.492,7.2973,7.154,7.1406,7.1381,7.1113,7.0478,6.9844,6.9425,6.9157,6.8628,6.7994,6.7067,6.4224,6.3638,0.0,0.0,0.0,0.0,0.0,0.0,0.0,0.0,0.0,0.0,0.0,0.0,0.0,0.0,0.0,0.0,5.8218,6.2412,6.3636,6.2011,6.0553,6.0067,6.0839,6.14,6.14,6.223,6.2791,6.2791,6.376,6.3906,6.2864,6.3767,0.0,0.0,0.0,6.4346,6.4346,6.6183,6.7213,6.7457,6.8242,6.8262,6.7408,6.6335,6.5347,6.4346,6.4346,6.4346,6.4346,6.4346,6.4346,6.4444,6.5329,6.572,6.5842,6.675,6.6525,6.572,6.572,0.0,0.0,6.4346,6.4346,6.4517,6.5427,6.5793,6.6086,6.7018,6.8042,6.8851,6.8973,6.9795,7.0573,7.0741,6.9063,6.7998,6.989,7.0441,7.1142,7.3049,7.5333,7.6918,7.6714,7.1606,6.5451,5.9292,5.9627,6.0612,6.0612,6.0759,6.1884,6.4636,0.0,0.0,7.1738,6.589,6.54,7.3557,6.7406,6.3228,6.2506,6.2474,6.1132,5.8238,5.9082,6.0839,6.3548,6.5353,6.6208,6.5744,5.267,4.9984,0.0,0.0,0.0,0.0,0.0,0.0,0.0,0.0,0.0,0.0,0.0,0.0,0.0,0.0,0.0,0.0,5.3603,5.6611,5.6769,5.7281,5.7609,5.756,5.8545,5.9394,5.9864,6.1395,6.2797,6.3851,6.395,6.4077,6.4278,6.3688,6.3621,6.4321,6.4346,6.4346,6.4346,6.5793,6.714,6.8339,6.8213,6.8169,6.8291,6.6671,6.5347,6.4346,6.4346,6.4346,6.4346,6.4346,6.4346,0.0,0.0,0.0,0.0,0.0,6.5353,6.5005,6.5005,6.4712,6.4346,6.4346,6.4346,6.4541,6.5573,6.633,6.7018,6.8067,6.9164,7.0015,7.0015,7.0402,7.0765,7.0765,6.9527,6.8798,7.0402,7.0744,7.1208,7.265,7.4188,0.0,7.4432,7.2301,6.9957,6.7715,6.8516,6.9366,6.9366,6.6634,6.4367,6.3454,6.1565,6.1475,6.4091,6.205,0.0,0.0,0.0,6.5896,6.6652,6.6037,0.0,0.0,0.0,0.0,0.0,0.0,0.0,0.0,4.7844,4.5993,0.0,0.0,0.0,0.0,0.0,0.0,0.0,0.0,0.0,0.0,0.0,0.0,0.0,0.0,0.0,0.0,4.7878,5.04,5.0545,5.2706,5.4221,5.4071,5.6215,5.7456,5.6754,5.9576,6.2016,6.333,6.352,6.3873,6.4559,6.3532,6.3172,6.3833,6.384,6.4028,6.4346,6.5353,6.6628,6.8164,6.7384,6.7408,6.8116,6.6305,6.5225,6.4761,6.4468,6.4492,6.4761,6.4468,6.4346,6.4297,6.4004,6.4053,6.437,6.4688,6.4956,6.5127,6.4541,6.3931,6.3442,6.3442,6.3442,6.3638,6.467,6.5921,6.7238,6.8266,6.9624,7.0765,7.0765,7.0524,7.028,7.028,6.9164,6.8457,6.9621,6.984,7.0158,7.121,7.1796,7.1601,6.9917,7.0089,7.0465,7.051,7.115,0.0,7.092,6.8018,6.4654,6.1043,5.8981,5.8312,5.937,5.8205,6.048,6.7758,6.6111,6.6335,6.9539,6.7542,6.6043,6.5262,5.8409,5.394,0.0,0.0,0.0,0.0,0.0,0.0,0.0,0.0,0.0,0.0,0.0,0.0,0.0,0.0,0.0,0.0,0.0,0.0,0.0,0.0,0.0,0.0,0.0,0.0,4.692,4.9101,5.0051,4.8766,5.3695,5.5442,5.1048,5.6025,5.96,5.9633,6.1854,6.2953,6.2328,6.3204,6.3359,6.2661,6.2669,6.3182,6.4321,6.5353,6.5939,6.5988,6.5964,6.5964,6.5964,6.4908,6.4932,6.5793,6.4785,6.4932,6.5768,6.4761,6.4346,6.4224,6.3084,6.3352,6.4468,6.5451,6.65,6.7043,6.5054,6.2954,6.1107,6.1107,6.1107,6.1327,6.2401,6.4231,6.6159,6.7189,6.9063,7.0765,7.0765,6.9917,6.9046,6.9046,6.7482,6.6305,6.7311,6.7555,6.7872,6.89,6.8335,6.6628,6.3474,6.2323,6.0848,5.7982,5.7544,0.0,5.517,5.7663,5.8759,5.6619,5.776,5.9794,6.2606,5.5115,5.4387,6.4087,5.9813,5.9939,6.6727,6.233,5.9751,5.9726,5.4407,5.0925,4.9495,0.0,0.0,0.0,0.0,0.0,0.0,0.0,0.0,0.0,0.0,0.0,0.0,0.0,0.0,0.0,0.0,0.0,0.0,0.0,0.0,0.0,0.0,0.0,0.0,4.3987,4.6623,4.5207,4.9543,5.1261,4.7708,5.1958,5.5494,5.6824,5.8886,6.1048,6.3236,6.2545,6.3065,6.5246,6.4058,6.356,6.3938,6.3812,6.4084,6.4883,6.4883,6.5249,6.5866,6.4834,6.4541,6.4859,6.4492,6.4541,6.4743,6.3645,6.2767,6.2124,6.1717,6.2541,6.3855,6.2984,6.3653,6.4729,6.2796,6.1684,6.1049,6.1049,6.1049,6.1229,6.2303,6.3092,6.4109,6.5915,6.7477,6.8746,6.9408,6.9311,6.8997,6.8997,6.7969,6.7018,6.736,6.7457,6.7555,6.792,6.4848,6.1823,6.0726,6.3268,6.4842,6.3127,6.6538,6.8396,6.5882,6.4994,6.3555,6.0967,5.9039,5.8296,5.929,5.671,5.6869,6.1399,6.1646,6.3161,6.6699,6.5486,6.5091,6.5756,6.1229,5.4048,4.4333,0.0,0.0,0.0,0.0,0.0,0.0,0.0,0.0,0.0,0.0,0.0,0.0,0.0,0.0,0.0,0.0,0.0,0.0,0.0,0.0,0.0,0.0,0.0,0.0,0.0,0.0,4.3811,4.7818,0.0,4.3784,4.7942,5.1104,5.1465,5.392,5.6712,5.9761,5.9263,6.0648,6.4594,6.3514,6.3492,6.4776,6.3613,6.3374,6.4119,6.3477,6.3516,6.4133,6.3467,6.3369,6.3711,6.3345,6.3369,6.3613,6.2108,6.0674,5.9377,5.8474,5.8657,5.9278,5.8598,5.9468,6.1046,6.1104,6.0572,5.9955,6.0244,5.9093,5.7733,5.852,5.8345,5.8238,6.0099,6.2222,6.4238,6.5787,6.6457,6.6682,6.6682,6.5921,6.514,6.514,6.4872,6.4814,6.5391,6.2764,5.9765,5.7645,6.232,6.5647,6.3648,6.8778,7.2059,6.966,6.7772,6.5248,6.1462,5.867,5.7024,5.7024,5.6812,5.7541,5.9645,6.2204,6.445,6.6167,6.7013,6.6872,6.5652,6.0604,5.2859,0.0,0.0,0.0,0.0,0.0,0.0,0.0,0.0,0.0,0.0,0.0,0.0,0.0,0.0,0.0,0.0,0.0,0.0,0.0,0.0,0.0,0.0,0.0,0.0,0.0,0.0,0.0,4.4224,4.8061,0.0,0.0,0.0,0.0,4.3723,4.7078,5.0104,5.2141,5.3421,5.6199,6.0813,6.0867,6.2579,6.6208,6.4409,6.3509,6.3611,6.1942,6.1204,6.1326,6.1326,6.1786,6.2596,6.1608,6.1675,6.2352,5.9979,5.7817,5.5778,5.337,5.1878,5.1247,5.2515,5.4118,5.61,5.9483,5.9313,5.7721,5.8347,5.5181,5.1189,5.1297,5.0159,0.0,0.0,5.3586,5.7398,6.0002,6.14,6.2238,6.2506,6.1791,6.1049,6.1049,6.0229,5.9826,0.0,6.1287,5.9487,5.343,0.0,6.211,5.8592,6.3536,6.7082,6.5561,6.5517,6.3542,5.8034,5.6664,5.6098,5.6098,5.5449,5.6126,5.8731,6.1298,6.3431,6.5059,6.6299,6.4506,5.9263,5.2712,0.0,0.0,0.0,0.0,0.0,0.0,0.0,0.0,0.0,0.0,0.0,0.0,0.0,0.0,0.0,0.0,0.0,0.0,0.0,0.0,0.0,0.0,0.0,0.0,0.0,0.0,3.8512,4.2371,4.3002,4.304,4.0731,0.0,0.0,0.0,0.0,0.0,0.0,4.6154,4.6649,4.9962,5.6814,5.5644,5.6719,6.0555,5.9691,6.0123,6.1871,6.2403,6.3557,6.5241,6.5241,6.458,6.3441,6.3202,6.2422,6.0972,5.4892,5.0875,4.8483,4.7077,4.5997,4.5405,4.6312,4.7208,4.8405,5.171,5.3104,5.3157,5.1413,4.9934,4.8216,4.4716,0.0,0.0,0.0,0.0,4.8072,5.4218,5.6234,5.7629,6.1628,6.1791,6.1049,6.1049,6.0229,5.761,0.0,5.0259,4.8253,4.115,0.0,0.0,0.0,5.6644,6.2043,6.1058,6.3199,6.2717,5.7151,5.579,5.5297,5.5297,5.5126,5.6126,5.8731,6.0633,6.2697,6.5036,6.2073,5.8569,5.4762,0.0,0.0,0.0,0.0,0.0,0.0,0.0,0.0,0.0,0.0,0.0,0.0,0.0,0.0,0.0,0.0,0.0,0.0,0.0,0.0,0.0,0.0,0.0,0.0,0.0,0.0,0.0,3.3716,3.852,3.972,3.8755,3.627,0.0,0.0,0.0,0.0,0.0,0.0,0.0,0.0,0.0,4.9156,4.8095,4.985,5.4976,5.4832,5.5975,5.8368,5.942,6.0613,6.1927,6.1927,6.1905,6.1818,6.0133,5.818,5.5832,5.1056,4.6672,4.2775,0.0,0.0,0.0,0.0,4.0083,4.1136,4.4913,4.6449,0.0,4.4564,0.0,0.0,0.0,0.0,0.0,0.0,0.0,0.0,0.0,0.0,5.5612,5.8428,5.8667,5.8081,5.7617,5.352,4.8426,0.0,4.2741,4.0711,3.384,0.0,0.0,0.0,0.0,5.6757,5.5986,6.051,6.1696,5.6235,5.5278,5.4993,5.4993,5.4993,5.662,6.0346,6.055,6.1408,6.326,5.8036,5.2453,0.0,0.0,0.0,0.0,0.0,0.0,0.0,0.0,0.0,0.0,0.0,0.0,0.0,0.0,0.0,0.0,0.0,0.0,0.0,0.0,0.0,0.0,0.0,0.0,0.0,0.0,0.0,0.0,0.0,3.3115,3.6006,0.0,0.0,0.0,0.0,0.0,0.0,0.0,0.0,0.0,0.0,0.0,0.0,0.0,4.2196,4.8482,4.9073,5.057,5.3049,5.4007,5.4658,5.501,5.501,5.6211,5.8101,5.3569,0.0,4.922,4.6997,0.0,0.0,0.0,0.0,0.0,0.0,0.0,0.0,0.0,0.0,0.0,0.0,0.0,0.0,0.0,0.0,0.0,0.0,0.0,0.0,0.0,0.0,5.2988,5.3067,5.3406,5.3211,0.0,4.3672,3.7211,3.7024,3.6922,0.0,0.0,0.0,0.0,0.0,0.0,0.0,5.0978,5.7876,6.0795,5.5596,5.4993,5.4993,5.4993,5.4993,5.7116,6.2059,5.9597,5.8507,5.9756,5.3514,0.0,0.0,0.0,0.0,0.0,0.0,0.0,0.0,0.0,0.0,0.0,0.0,0.0,0.0,0.0,0.0,0.0,0.0,0.0,0.0,0.0,0.0,0.0,0.0,0.0,0.0,0.0,0.0,0.0,0.0,0.0,0.0,0.0,0.0,0.0,0.0,0.0,0.0,0.0,0.0,0.0,0.0,0.0,0.0,0.0,0.0,0.0,0.0,0.0,0.0,4.6671,4.8719,5.0824,5.0824,5.1389,5.194,4.3633,4.2479,4.5893,3.8747,0.0,0.0,0.0,0.0,0.0,0.0,0.0,0.0,0.0,0.0,0.0,0.0,0.0,0.0,0.0,0.0,0.0,0.0,0.0,0.0,0.0,0.0,0.0,0.0,4.7157,4.735,0.0,0.0,0.0,0.0,0.0,0.0,0.0,0.0,0.0,0.0,0.0,0.0,4.7542,5.6512,6.0795,5.5596,5.4993,5.4993,5.4993,5.4993,5.6501,5.9988,5.3183,5.031,0.0,0.0,0.0,0.0,0.0,0.0,0.0,0.0,0.0,0.0,0.0,0.0,0.0,0.0,0.0,0.0,0.0,0.0,0.0,0.0,0.0,0.0,0.0,0.0,0.0,0.0,0.0,0.0,0.0,0.0,0.0,0.0,0.0,0.0,0.0,0.0,0.0,0.0,0.0,0.0,0.0,0.0,0.0,0.0,0.0,0.0,0.0,0.0,0.0,0.0,0.0,0.0,0.0,0.0,0.0,0.0,0.0,0.0,0.0,3.4872,0.0,0.0,0.0,0.0,0.0,0.0,0.0,0.0,0.0,0.0,0.0,0.0,0.0,0.0,0.0,0.0,0.0,0.0,0.0,0.0,0.0,0.0,0.0,0.0,0.0,0.0,0.0,0.0,0.0,0.0,0.0,0.0,0.0,0.0,0.0,0.0,0.0,0.0,0.0,0.0,4.3159,5.462,6.0795,5.5596,5.4993,5.4993,5.4993,5.4665,5.4321,5.4147,4.8621,0.0,0.0,0.0,0.0,0.0,0.0,0.0,0.0,0.0,0.0,0.0,0.0,0.0,0.0,0.0,0.0,0.0,0.0,0.0,0.0,0.0,0.0,0.0,0.0,0.0,0.0,0.0,0.0,0.0,0.0,0.0,0.0,0.0,0.0,0.0,0.0,0.0,0.0,0.0,0.0,0.0,0.0,0.0,0.0,0.0,0.0,0.0,0.0,0.0,0.0,0.0,0.0,0.0,0.0,0.0,0.0,0.0,0.0,0.0,3.4442,0.0,0.0,0.0,0.0,0.0,0.0,0.0,0.0,0.0,0.0,0.0,0.0,0.0,0.0,0.0,0.0,0.0,0.0,0.0,0.0,0.0,0.0,0.0,0.0,0.0,0.0,0.0,0.0,0.0,0.0,0.0,0.0,0.0,0.0,0.0,0.0,0.0,0.0,0.0,0.0,0.0,4.0683,5.3345,6.0761,5.6312,5.5337,5.4993,5.4993,5.4304,5.2265,4.8532,4.4014,0.0,0.0,0.0,0.0,0.0,0.0,0.0,0.0,0.0,0.0,0.0,0.0,0.0,0.0,0.0,0.0,0.0,0.0,0.0,0.0,0.0,0.0,0.0,0.0,0.0,0.0,0.0,0.0,0.0,0.0,0.0,0.0,0.0,0.0,0.0,0.0,0.0,0.0,0.0,0.0,0.0,0.0,0.0,0.0,0.0,0.0,0.0,0.0,0.0,0.0,0.0,0.0,0.0,0.0,0.0,0.0,0.0,0.0,0.0,0.0,0.0,0.0,0.0,0.0,0.0,0.0,0.0,0.0,0.0,0.0,0.0,0.0,0.0,0.0,0.0,0.0,0.0,0.0,0.0,0.0,0.0,0.0,0.0,0.0,0.0,0.0,0.0,0.0,0.0,0.0,0.0,0.0,0.0,0.0,0.0,0.0,0.0,0.0,0.0,0.0,0.0,4.3096,5.3816,6.0628,5.875,5.6434,5.4993,5.4993,5.4304,5.157,4.6304,0.0,0.0,0.0,0.0,0.0,0.0,0.0,0.0,0.0,0.0,0.0,0.0,0.0,0.0,0.0,0.0,0.0,0.0,0.0,0.0,0.0,0.0,0.0,0.0,0.0,0.0,0.0,0.0,0.0,0.0,0.0,0.0,0.0,0.0,0.0,0.0,0.0,0.0,0.0,0.0,0.0,0.0,0.0,0.0,0.0,0.0,0.0,0.0,0.0,0.0,0.0,0.0,0.0,0.0,0.0,0.0,0.0,0.0,0.0,0.0,0.0,0.0,0.0,0.0,0.0,0.0,0.0,0.0,0.0,0.0,0.0,0.0,0.0,0.0,0.0,0.0,0.0,0.0,0.0,0.0,0.0,0.0,0.0,0.0,0.0,0.0,0.0,0.0,0.0,0.0,0.0,0.0,0.0,0.0,0.0,0.0,0.0,0.0,0.0,0.0,0.0,0.0,4.3088,5.5138,6.2377,5.9233,5.796,5.6527,5.4515,5.3494,4.9058,3.9841,0.0,0.0,0.0,0.0,0.0,0.0,0.0,0.0,0.0,0.0,0.0,0.0,0.0,0.0,0.0,0.0,0.0,0.0,0.0,0.0,0.0,0.0,0.0,0.0,0.0,0.0,0.0,0.0,0.0,0.0,0.0,0.0,0.0,0.0,0.0,0.0,0.0,0.0,0.0,0.0,0.0,0.0,0.0,0.0,0.0,0.0,0.0,0.0,0.0,0.0,0.0,0.0,0.0,0.0,0.0,0.0,0.0,0.0,0.0,0.0,0.0,0.0,0.0,0.0,0.0,0.0,0.0,0.0,0.0,0.0,0.0,0.0,0.0,0.0,0.0,0.0,0.0,0.0,0.0,0.0,0.0,0.0,0.0,0.0,0.0,0.0,0.0,0.0,0.0,0.0,0.0,0.0,0.0,0.0,0.0,0.0,0.0,0.0,0.0,0.0,0.0,0.0,4.3671,5.5355,6.2529,5.9845,5.8294,5.645,5.402,5.2089,4.6407,3.5688,0.0,0.0,0.0,0.0,0.0,0.0,0.0,0.0,0.0,0.0,0.0,0.0,0.0,0.0,0.0,0.0,0.0,0.0,0.0,0.0,0.0,0.0,0.0,0.0,0.0,0.0,0.0,0.0,0.0,0.0,0.0,0.0,0.0,0.0,0.0,0.0,0.0,0.0,0.0,0.0,0.0,0.0,0.0,0.0,0.0,0.0,0.0,0.0,0.0,0.0,0.0,0.0,0.0,0.0,0.0,0.0,0.0,0.0,0.0,0.0,0.0,0.0,0.0,0.0,0.0,0.0,0.0,0.0,0.0,0.0,0.0,0.0,0.0,0.0,0.0,0.0,0.0,0.0,0.0,0.0,0.0,0.0,0.0,0.0,0.0,0.0,0.0,0.0,0.0,0.0,0.0,0.0,0.0,0.0,0.0,0.0,0.0,0.0,0.0,0.0,0.0,0.0,4.5576,5.4067,6.0103,6.1104,5.6806,5.3899,5.3829,4.9925,4.3904,0.0,0.0,0.0,0.0,0.0,0.0,0.0,0.0,0.0,0.0,0.0,0.0,0.0,0.0,0.0,0.0,0.0,0.0,0.0,0.0,0.0,0.0,0.0,0.0,0.0,0.0,0.0,0.0,0.0,0.0,0.0,0.0,0.0,0.0,0.0,0.0,0.0,0.0,0.0,0.0,0.0,0.0,0.0,0.0,0.0,0.0,0.0,0.0,0.0,0.0,0.0,0.0,0.0,0.0,0.0,0.0,0.0,0.0,0.0,0.0,0.0,0.0,0.0,0.0,0.0,0.0,0.0,0.0,0.0,0.0,0.0,0.0,0.0,0.0,0.0,0.0,0.0,0.0,0.0,0.0,0.0,0.0,0.0,0.0,0.0,0.0,0.0,0.0,0.0,0.0,0.0,0.0,0.0,0.0,0.0,0.0,0.0,0.0,0.0,0.0,0.0,0.0,0.0,4.5003,5.2406,5.7805,6.0211,5.9025,5.6464,5.2471,5.0855,4.5768,3.5616,0.0,0.0,0.0,0.0,0.0,0.0,0.0,0.0,0.0,0.0,0.0,0.0,0.0,0.0,0.0,0.0,0.0,0.0,0.0,0.0,0.0,0.0,0.0,0.0,0.0,0.0,0.0,0.0,0.0,0.0,0.0,0.0,0.0,0.0,0.0,0.0,0.0,0.0,0.0,0.0,0.0,0.0,0.0,0.0,0.0,0.0,0.0,0.0,0.0,0.0,0.0,0.0,0.0,0.0,0.0,0.0,0.0,0.0,0.0,0.0,0.0,0.0,0.0,0.0,0.0,0.0,0.0,0.0,0.0,0.0,0.0,0.0,0.0,0.0,0.0,0.0,0.0,0.0,0.0,0.0,0.0,0.0,0.0,0.0,0.0,0.0,0.0,0.0,0.0,0.0,0.0,0.0,0.0,0.0,0.0,0.0,0.0,0.0,0.0,0.0,0.0,0.0,0.0,5.2714,5.8157,5.9295,5.8609,5.6258,5.1717,5.0134,4.5274,3.5578,0.0,0.0,0.0,0.0,0.0,0.0,0.0,0.0,0.0,0.0,0.0,0.0,0.0,0.0,0.0,0.0,0.0,0.0,0.0,0.0,0.0,0.0,0.0,0.0,0.0,0.0,0.0,0.0,0.0,0.0,0.0,0.0,0.0,0.0,0.0,0.0,0.0,0.0,0.0,0.0,0.0,0.0,0.0,0.0,0.0,0.0,0.0,0.0,0.0,0.0,0.0,0.0,0.0,0.0,0.0,0.0,0.0,0.0,0.0,0.0,0.0,0.0,0.0,0.0,0.0,0.0,0.0,0.0,0.0,0.0,0.0,0.0,0.0,0.0,0.0,0.0,0.0,0.0,0.0,0.0,0.0,0.0,0.0,0.0,0.0,0.0,0.0,0.0,0.0,0.0,0.0,0.0,0.0,0.0,0.0,0.0,0.0,0.0,0.0,0.0,0.0,0.0,0.0,5.4335,6.0077,5.8616,5.6377,5.4025,5.166,4.8448,4.3224,3.5464,3.0165,0.0,0.0,0.0,0.0,0.0,0.0,0.0,0.0,0.0,0.0,0.0,0.0,0.0,0.0,0.0,0.0,0.0,0.0,0.0,0.0,0.0,0.0,0.0,0.0,0.0,0.0,0.0,0.0,0.0,0.0,0.0,0.0,0.0,0.0,0.0,0.0,0.0,0.0,0.0,0.0,0.0,0.0,0.0,0.0,0.0,0.0,0.0,0.0,0.0,0.0,0.0,0.0,0.0,0.0,0.0,0.0,0.0,0.0,0.0,0.0,0.0,0.0,0.0,0.0,0.0,0.0,0.0,0.0,0.0,0.0,0.0,0.0,0.0,0.0,0.0,0.0,0.0,0.0,0.0,0.0,0.0,0.0,0.0,0.0,0.0,0.0,0.0,0.0,0.0,0.0,0.0,0.0,0.0,0.0,0.0,0.0,0.0,0.0,0.0,0.0,0.0,0.0,5.2346,5.6419,5.9735,5.8025,5.5681,5.3307,5.0618,4.5042,3.5612,3.2023,0.0,0.0,0.0,0.0,0.0,0.0,0.0,0.0,0.0,0.0,0.0,0.0,0.0,0.0,0.0,0.0,0.0,0.0,0.0,0.0,0.0,0.0,0.0,0.0,0.0,0.0,0.0,0.0,0.0,0.0,0.0,0.0,0.0,0.0,0.0,0.0,0.0,0.0,0.0,0.0,0.0,0.0,0.0,0.0,0.0,0.0,0.0,0.0,0.0,0.0,0.0,0.0,0.0,0.0,0.0,0.0,0.0,0.0,0.0,0.0,0.0,0.0,0.0,0.0,0.0,0.0,0.0,0.0,0.0,0.0,0.0,0.0,0.0,0.0,0.0,0.0,0.0,0.0,0.0,0.0,0.0,0.0,0.0,0.0,0.0,0.0,0.0,0.0,0.0,0.0,0.0,0.0,0.0,0.0,0.0,0.0,0.0,0.0,0.0,0.0,0.0,0.0,4.5295,5.0935,5.9079,5.9226,5.7385,5.3929,5.2045,4.6466,3.5679,3.2662,0.0,0.0,0.0,0.0,0.0,0.0,0.0,0.0,0.0,0.0,0.0,0.0,0.0,0.0,0.0,0.0,0.0,0.0,0.0,0.0,0.0,0.0,0.0,0.0,0.0,0.0,0.0,0.0,0.0,0.0,0.0,0.0,0.0,0.0,0.0,0.0,0.0,0.0,0.0,0.0,0.0,0.0,0.0,0.0,0.0,0.0,0.0,0.0,0.0,0.0,0.0,0.0,0.0,0.0,0.0,0.0,0.0,0.0,0.0,0.0,0.0,0.0,0.0,0.0,0.0,0.0,0.0,0.0,0.0,0.0,0.0,0.0,0.0,0.0,0.0,0.0,0.0,0.0,0.0,0.0,0.0,0.0,0.0,0.0,0.0,0.0,0.0,0.0,0.0,0.0,0.0,0.0,0.0,0.0,0.0,0.0,0.0,0.0,0.0,0.0,0.0,0.0,0.0,4.6775,5.6972,5.9312,5.8505,5.434,5.2813,4.7136,3.5537,0.0,0.0,0.0,0.0,0.0,0.0,0.0,0.0,0.0,0.0,0.0,0.0,0.0,0.0,0.0,0.0,0.0,0.0,0.0,0.0,0.0,0.0,0.0,0.0,0.0,0.0,0.0,0.0,0.0,0.0,0.0,0.0,0.0,0.0,0.0,0.0,0.0,0.0,0.0,0.0,0.0,0.0,0.0,0.0,0.0,0.0,0.0,0.0,0.0,0.0,0.0,0.0,0.0,0.0,0.0,0.0,0.0,0.0,0.0,0.0,0.0,0.0,0.0,0.0,0.0,0.0,0.0,0.0,0.0,0.0,0.0,0.0,0.0,0.0,0.0,0.0,0.0,0.0,0.0,0.0,0.0,0.0,0.0,0.0,0.0,0.0,0.0,0.0,0.0,0.0,0.0,0.0,0.0,0.0,0.0,0.0,0.0,0.0,0.0,0.0,0.0,0.0,0.0,0.0,5.0463,5.306,5.6158,5.7364,5.5747,5.2774,4.6151,3.4712,0.0,0.0,0.0,0.0,0.0,0.0,0.0,0.0,0.0,0.0,0.0,0.0,0.0,0.0]}],[{"header":{"parameterUnit":"kt","parameterCategory":2,"dx":1,"dy":1,"la1":29.285339999999998,"la2":30.599998999999997,"lo1":-89.70041500000002,"lo2":-87.6738589999976,"nx":112,"ny":82,"refTime":"2022-10-28T06:00:00:Z","depth":0,"parameterNumber":2,"parameterNumberName":"V-component_of_WINDS"},"data":[6.7505,6.8322,0.0,5.8413,5.3656,0.0,3.6689,3.3916,3.2989,3.0297,3.0742,3.2171,3.3875,2.9004,2.5075,2.6102,2.3325,1.9551,0.0,1.3578,1.3447,1.5048,1.8937,2.2835,2.616,0.0,0.0,0.0,0.0,0.0,0.0,0.0,7.2802,7.988,8.007,8.007,8.007,8.007,8.007,8.007,8.007,7.8323,7.502,7.502,7.3198,6.9971,6.9971,6.9971,6.9971,6.9971,6.9971,6.9971,6.9971,6.9971,7.0426,7.4337,7.6539,7.7792,7.95,8.007,8.007,8.007,8.007,8.007,8.007,8.007,8.007,8.007,8.007,8.007,8.007,8.007,8.007,8.007,7.9991,7.9946,7.9946,7.9744,7.9549,7.9549,7.9467,7.9537,7.976,7.9891,7.9986,8.0069,8.007,8.007,8.007,8.0097,8.0559,8.1854,8.4668,8.5483,8.3135,8.1529,8.0463,7.9983,8.0895,8.2123,8.3647,8.4862,8.6461,8.8618,8.6571,8.5814,8.6513,8.4805,8.4849,8.66,8.7207,8.8384,0.0,0.0,6.0361,5.0094,4.5281,3.9986,2.8558,2.6197,2.5538,2.228,2.5459,2.8183,2.6066,2.4644,2.362,2.3207,2.206,1.9926,0.0,1.4198,1.4232,1.7039,2.3621,2.9046,0.0,0.0,0.0,0.0,0.0,0.0,0.0,7.0423,7.4661,7.9918,8.007,8.007,8.007,8.007,8.007,8.007,8.007,7.8323,7.502,7.502,7.3198,6.9971,6.9971,6.9971,6.9971,6.9971,6.9971,7.0047,7.0616,7.0844,7.1375,7.5893,7.7564,7.7792,7.95,8.007,8.007,8.007,8.007,8.007,8.007,8.007,8.007,8.007,8.007,8.007,8.007,8.007,8.007,8.007,8.007,8.007,8.007,7.9946,7.9846,7.9846,7.9762,7.9772,8.0066,8.0074,8.0087,8.0069,8.007,8.0069,8.01,8.0067,8.0457,8.1456,8.3669,8.4249,8.2202,8.1107,8.0638,8.0867,8.1854,8.3407,8.5575,8.6823,8.819,8.9715,8.8266,8.7473,8.7473,8.6334,8.6372,8.7511,8.8042,8.8915,5.4823,5.1827,4.8661,4.1214,3.5361,3.0199,2.5383,2.5093,2.4969,2.1977,2.4858,2.7024,2.4172,2.3499,2.301,2.1777,2.1569,0.0,0.0,1.7724,1.7843,2.0139,2.909,0.0,0.0,0.0,0.0,0.0,0.0,0.0,7.1259,7.2503,7.4982,7.9918,8.007,8.007,8.007,8.007,8.007,8.007,8.007,7.8323,7.502,7.502,7.3198,6.9971,6.9971,6.9971,6.9971,6.9971,6.9971,7.016,7.1831,7.2552,7.3008,7.6387,7.764,7.7867,7.9538,8.007,8.007,8.007,8.007,8.007,8.007,8.007,8.007,8.007,8.007,8.007,8.007,8.007,8.007,8.007,8.007,8.007,8.007,8.007,8.007,8.007,8.007,8.007,8.007,8.007,8.007,8.007,8.007,8.0103,8.0082,8.0065,7.9729,7.8826,8.1047,8.2509,8.2306,8.2286,8.2306,8.2385,8.2461,8.398,8.7245,8.7435,8.8232,8.9865,8.8384,8.7549,8.7549,8.7549,8.7549,8.7587,8.9257,9.0016,4.3241,4.3306,4.2729,3.8187,3.5934,3.2917,2.5559,2.2294,2.0888,2.1195,2.1403,0.0,0.0,0.0,2.0693,2.156,0.0,2.3801,1.9785,2.4012,3.0965,4.02,0.0,0.0,0.0,0.0,0.0,0.0,0.0,0.0,7.1975,7.5792,7.8455,8.0032,8.007,8.007,8.007,8.007,8.007,8.007,8.007,7.8323,7.502,7.502,7.3198,6.9971,6.9971,6.9971,6.9971,6.9971,6.9971,7.016,7.1831,7.3274,7.4754,7.8133,7.9386,7.9462,7.9918,8.007,8.007,8.007,8.007,8.007,8.007,8.007,8.007,8.007,8.007,8.007,8.007,8.007,8.007,8.007,8.007,8.007,8.007,8.007,8.007,8.007,8.007,8.007,8.007,8.007,8.007,8.007,8.007,8.0103,8.0082,7.9763,7.9326,7.8794,8.0788,8.1602,8.0158,8.2304,8.336,8.2341,8.3519,8.4663,8.5612,8.6827,8.7701,8.8156,8.8915,8.9295,8.9295,8.9295,8.9295,8.9333,8.9789,9.0016,3.6789,3.7725,3.8277,3.3179,3.385,3.3313,2.3905,2.1314,2.0777,2.0374,0.0,0.0,0.0,0.0,0.0,0.0,2.594,2.8872,2.6171,3.2861,4.065,4.7743,0.0,0.0,0.0,0.0,0.0,0.0,0.0,6.9095,7.4208,7.7239,7.888,7.9006,7.9006,7.9348,8.007,8.007,8.007,8.007,8.007,7.8703,7.6045,7.5362,7.3577,7.0996,7.0274,6.9971,6.9971,6.9971,6.9971,7.0198,7.2449,7.3964,7.5274,7.8652,7.9989,8.007,8.007,8.007,8.007,8.007,8.007,8.007,8.007,8.007,8.007,8.007,8.007,8.007,8.007,8.007,8.007,8.007,8.007,8.007,8.007,8.007,8.007,8.007,8.007,8.007,8.007,8.007,8.007,8.007,8.007,8.0027,7.9854,7.9476,7.9133,7.8929,8.073,8.1482,8.0294,8.2838,8.4167,8.3333,8.4995,8.5688,8.4967,8.6562,8.7814,8.8536,8.9485,9.0016,9.0016,9.0016,9.0016,9.0016,9.0016,9.0016,3.3247,3.3316,3.3756,2.7718,2.9899,3.1235,2.2403,0.0,2.3616,2.2206,0.0,2.125,2.2284,0.0,0.0,2.2688,3.0117,3.5932,3.598,4.4257,5.0456,5.091,5.6194,0.0,0.0,6.7724,7.1424,7.8645,7.3888,7.2486,7.6706,7.7328,7.7564,7.7564,7.7754,7.8589,8.007,8.007,8.007,8.007,8.007,7.9196,7.7488,7.6007,7.4299,7.2438,7.092,7.016,6.9971,6.997,6.997,7.0233,7.3338,7.4696,7.5348,7.834,7.9708,8.007,7.988,7.9918,8.007,8.007,8.007,8.007,8.007,8.007,8.007,8.007,8.007,8.007,8.007,8.007,8.007,8.007,8.007,8.007,8.007,8.007,8.007,8.007,8.007,8.007,8.007,8.007,8.007,8.007,8.007,7.9951,7.9587,7.9347,7.9178,7.9144,8.0753,8.1792,8.1717,8.3772,8.5051,8.5062,8.6744,8.7017,8.5309,8.6676,8.8156,8.9675,8.9903,9.0016,9.0016,9.0016,9.0016,9.0016,9.0016,9.0016,2.7372,2.5002,2.4146,2.6408,2.5283,2.4441,0.0,0.0,0.0,3.7444,3.5107,3.318,3.8704,3.5642,3.3931,3.8952,0.0,0.0,0.0,5.9981,0.0,7.3576,0.0,0.0,0.0,7.6197,7.5664,7.589,7.6006,7.5892,7.5473,7.6766,7.7564,7.7564,7.8893,7.9766,8.007,8.007,8.007,8.007,8.007,7.9196,7.7526,7.7222,7.54,7.2476,7.2173,7.1224,6.9971,6.9871,6.9811,7.0157,7.3599,7.5773,7.7068,7.7751,7.8854,7.988,7.8513,7.8931,8.007,8.007,8.007,8.007,8.007,8.007,8.007,8.007,8.007,8.007,8.007,8.007,8.007,8.007,8.007,8.007,8.007,8.007,8.007,8.007,8.007,8.007,8.007,8.007,8.007,8.007,8.007,7.9989,7.9701,7.9612,7.9521,7.9272,8.0808,8.1908,8.2083,8.4985,8.6823,8.6938,8.8573,8.8764,8.7055,8.7283,8.7625,8.7966,8.9295,9.0016,9.0016,9.0016,9.0016,9.0016,9.0016,9.0016,2.3761,2.2513,2.2425,2.3126,2.3816,0.0,0.0,2.6758,2.8661,4.0604,3.8563,3.72,4.5692,4.5248,4.4396,4.685,5.2729,5.7855,6.0327,6.7265,7.3451,7.7026,0.0,0.0,7.8589,7.8057,7.6842,7.5172,7.5817,7.5552,7.3843,7.5362,7.6311,7.6311,7.7943,7.9234,8.007,8.007,8.007,8.007,8.007,7.9652,7.8779,7.707,7.5362,7.3653,7.1983,7.0768,6.9971,6.9886,7.0811,7.2485,7.5025,7.6571,7.7472,7.8304,7.9266,7.9956,7.912,7.9386,8.007,8.007,8.007,8.007,8.007,8.007,8.007,8.007,8.007,8.007,8.007,8.007,8.007,8.007,8.007,8.007,8.007,8.007,8.007,8.007,8.007,8.007,8.007,8.007,8.007,8.007,8.0753,8.1207,8.1079,8.1797,8.2229,8.2045,8.3609,8.4704,8.4742,8.7135,8.8679,8.8726,8.9523,8.9257,8.7549,8.8308,8.8346,8.7511,8.9143,9.0016,9.0016,9.0016,9.0016,9.0016,9.0016,9.0016,2.1151,2.1419,2.2401,2.1139,2.3396,0.0,2.8483,2.7956,3.0765,4.3745,4.3106,4.3062,5.2615,5.4581,5.4654,5.4329,6.0619,6.767,7.3725,7.1142,7.0274,7.4847,0.0,0.0,7.7108,7.6956,7.6159,7.5096,7.4413,7.3577,7.2552,7.4109,7.5172,7.5514,7.7184,7.8703,8.007,8.007,8.007,8.007,8.007,8.007,7.9994,7.726,7.5665,7.4868,7.2173,7.0768,7.0464,7.0463,7.2312,7.5352,7.659,7.7375,7.7864,7.8882,7.9636,8.0032,7.9728,7.9804,8.007,8.007,8.007,8.007,8.007,8.007,8.007,8.007,8.007,8.007,8.007,8.007,8.007,8.007,8.007,8.007,8.007,8.007,8.007,8.007,8.007,8.007,8.007,8.007,8.007,8.007,8.1398,8.2423,8.2423,8.3904,8.4888,8.4812,8.6099,8.7052,8.728,8.8643,8.9637,8.9979,9.0016,8.9409,8.8004,8.9295,8.9371,8.8004,8.9295,9.0016,9.0016,9.0016,9.0016,9.0016,9.0016,9.0016,1.8847,1.8225,1.9004,2.4347,2.2479,0.0,3.6169,3.8439,4.2411,5.882,6.0665,6.1519,6.8679,6.6478,6.4881,6.897,6.9404,7.0532,7.4412,7.4488,7.4906,7.7032,7.5589,0.0,7.7374,7.483,7.3615,7.4944,7.2249,7.111,7.2438,7.4109,7.5741,7.7222,7.8931,7.988,8.007,8.007,8.007,8.007,8.007,8.007,8.007,7.969,7.7905,7.502,7.464,7.3615,7.221,7.2107,7.4087,7.7259,7.7409,7.8397,7.9613,7.8284,7.8778,7.988,7.8361,7.8817,8.007,8.007,8.007,8.007,8.007,8.007,8.007,8.007,8.007,8.007,8.007,8.007,8.007,8.007,8.007,8.007,8.007,8.007,8.007,8.007,8.007,8.007,8.007,8.007,8.007,8.007,8.1398,8.2423,8.2423,8.3904,8.4929,8.4928,8.5119,8.584,8.732,8.7625,8.8384,8.9903,9.0016,8.9941,8.9713,8.9903,8.9903,8.9713,8.9903,9.0016,9.0016,9.0016,9.0016,9.0016,9.0016,9.0016,1.664,1.6608,1.7474,2.1214,0.0,0.0,3.5718,3.9563,4.5474,6.1457,6.4259,6.655,7.5286,7.4375,7.2969,7.4971,7.3905,7.3683,7.6159,7.4792,7.4185,7.5893,7.4602,7.3843,0.0,7.335,7.24,7.2135,7.1679,7.1755,7.2476,7.5058,7.6804,7.7526,7.9196,8.007,8.007,8.007,8.007,8.007,8.007,8.007,8.0032,7.9044,7.7867,7.6463,7.5476,7.464,7.4033,7.4976,7.6838,7.9044,7.9044,7.9462,7.9994,7.9272,7.95,7.9994,7.9272,7.95,8.007,8.007,8.007,8.007,8.007,8.007,8.007,8.007,8.007,8.007,8.007,8.007,8.007,8.007,8.007,8.007,8.007,8.007,8.007,8.007,8.007,8.007,8.007,8.007,8.007,8.007,8.2272,8.3904,8.3904,8.622,8.789,8.789,8.789,8.8156,8.8878,8.8953,8.9257,8.9979,9.0016,8.9561,8.8574,8.8536,8.8536,8.8536,8.8536,8.8991,9.0016,9.0016,9.0016,9.0016,9.0016,9.0016,1.5207,0.0,0.0,0.0,0.0,0.0,4.1399,4.5463,5.0724,6.4138,6.7347,7.0123,7.7943,7.8019,7.6691,7.6235,7.5134,7.4754,7.5969,7.4071,7.3122,7.483,7.3122,7.1983,7.2476,0.0,0.0,0.0,7.2249,7.3198,7.3198,7.5969,7.7792,7.8247,7.9462,8.007,8.007,8.007,8.007,8.007,8.007,8.007,8.0032,7.8817,7.8019,7.7488,7.6273,7.6007,7.6539,7.7754,7.8969,8.007,8.007,8.007,8.007,8.007,8.007,8.007,8.007,8.007,8.007,8.007,8.007,8.007,8.007,8.007,8.007,8.007,8.007,8.007,8.007,8.007,8.007,8.007,8.007,8.007,8.007,8.007,8.007,8.007,8.007,8.007,8.007,8.007,8.0259,8.0677,8.3145,8.5119,8.5575,8.8194,9.0016,9.0016,8.9561,8.9485,8.9979,8.9561,8.9485,8.9979,8.9561,8.8764,8.7549,8.7473,8.7473,8.7473,8.7928,8.8764,9.0016,9.0016,9.0016,9.0016,9.0016,9.0016,0.0,0.0,0.0,3.5215,3.6014,3.877,5.8594,6.1172,6.1804,7.0502,7.3577,7.5324,7.726,7.6273,7.4564,7.2932,7.2628,7.259,7.2628,7.2552,7.3122,7.483,7.2059,7.0692,7.2362,7.2514,0.0,0.0,7.3995,7.4944,7.4944,7.6615,7.8323,7.9956,8.007,8.007,8.007,8.007,8.007,8.007,8.007,8.007,8.007,8.0032,7.912,7.7564,7.7488,7.8399,7.9956,7.9994,8.0032,8.007,8.007,8.007,8.007,8.007,8.007,8.007,8.007,8.007,8.007,8.007,8.007,8.007,8.007,8.007,8.007,8.007,8.007,8.007,8.007,8.007,8.007,8.007,8.007,8.007,8.007,8.007,8.007,8.007,8.007,8.007,8.007,8.007,8.0601,8.212,8.3828,8.5537,8.7169,8.8915,9.0016,9.0016,8.8536,8.8194,8.9865,8.8498,8.8232,8.9903,8.846,8.7549,8.7473,8.7473,8.7473,8.7473,8.9067,8.9941,9.0016,9.0016,9.0016,9.0016,9.0016,9.0016,1.8812,2.2889,2.8808,3.8264,4.359,4.9016,5.8652,6.448,6.8756,7.1867,7.4754,7.688,7.745,7.4337,7.1869,7.24,7.3463,7.4185,7.4185,7.5134,7.5248,7.3539,7.2362,7.1451,7.0882,7.0844,7.1299,0.0,0.0,0.0,7.6577,7.726,7.8323,8.0032,8.007,8.007,8.007,8.007,8.007,8.007,8.007,8.007,8.007,8.007,7.9766,7.9234,7.9234,7.9576,8.007,8.007,8.007,8.007,8.007,8.007,8.007,8.007,8.007,8.007,8.007,8.007,8.007,8.007,8.007,8.007,8.007,8.007,8.007,8.007,8.007,8.007,8.007,8.007,8.007,8.007,8.007,8.007,8.007,8.007,8.007,8.007,8.007,8.007,8.007,8.007,8.0259,8.0791,8.3183,8.5157,8.5726,8.7283,8.8764,8.9865,8.8498,8.8156,8.9865,8.9485,8.9409,8.9979,8.9485,8.865,8.7511,8.7473,8.7473,8.7473,8.8042,8.8878,9.0016,9.0016,9.0016,9.0016,9.0016,9.0016,2.2879,2.7671,3.3681,4.4382,5.1112,5.694,6.3999,6.9379,7.3173,7.4106,7.5552,7.6463,7.5855,7.259,7.0312,7.1413,7.3046,7.4337,7.4944,7.5969,7.6083,7.4489,7.3805,7.2742,7.1034,7.1451,7.1983,7.2476,0.0,7.5248,7.745,7.8133,7.8969,8.0032,8.007,8.007,8.007,8.007,8.007,8.007,8.007,8.007,8.007,8.007,8.007,8.007,8.007,8.007,8.007,8.007,8.007,8.007,8.007,8.007,8.007,8.007,8.007,8.007,8.007,8.007,8.007,8.007,8.007,8.007,8.007,8.007,8.007,8.007,8.007,8.007,8.007,8.007,8.007,8.007,8.007,8.007,8.007,8.007,8.007,8.007,8.007,8.007,8.007,8.007,8.0487,8.1664,8.36,8.5385,8.66,8.7169,8.8118,8.9827,8.8498,8.8156,8.9865,9.0016,9.0016,9.0016,8.9447,8.8612,8.7511,8.7473,8.7473,8.7473,8.808,8.8915,9.0016,9.0016,9.0016,9.0016,9.0016,9.0016,2.6951,3.1625,3.7498,5.354,5.8634,6.272,7.4331,7.5741,7.5201,7.7145,7.6159,7.4375,7.2666,7.1072,6.9971,6.9971,7.1413,7.3084,7.4792,7.5096,7.5741,7.726,7.6007,7.4337,7.2552,7.3843,7.4147,7.2628,7.5476,7.7374,7.7564,7.9082,7.9994,8.007,8.007,8.007,8.007,8.007,8.007,8.007,8.007,8.007,8.007,8.007,8.007,8.007,8.007,8.007,8.007,8.007,8.007,8.007,8.007,8.007,8.007,8.007,8.007,8.007,8.007,8.007,8.007,8.007,8.007,8.007,8.007,8.007,8.007,8.007,8.007,8.007,8.007,8.007,8.007,8.007,8.007,8.007,8.007,8.007,8.007,8.007,8.007,8.007,8.007,8.007,8.1133,8.4208,8.4777,8.603,8.9333,8.8346,8.8004,8.9789,8.8498,8.8156,8.9865,9.0016,9.0016,9.0016,8.8498,8.7625,8.7625,8.7625,8.7625,8.7625,8.9181,9.0016,9.0016,9.0016,9.0016,9.0016,9.0016,9.0016,3.2797,4.2985,5.1963,6.0745,6.5328,6.9272,7.5545,7.5684,7.5067,7.7142,7.521,7.2628,7.092,7.0274,6.9971,6.9971,7.1413,7.3084,7.4792,7.6121,7.6615,7.5779,7.5286,7.3881,7.092,7.0996,7.1603,7.2438,7.3312,7.4906,7.7412,7.7981,7.8779,8.0032,8.007,8.007,8.007,8.007,8.007,8.007,8.007,8.007,8.007,8.007,8.007,8.007,8.007,8.007,8.007,8.007,8.007,8.007,8.007,8.007,8.007,8.007,8.007,8.007,8.007,8.007,8.007,8.007,8.007,8.007,8.007,8.007,8.007,8.007,8.007,8.007,8.007,8.007,8.007,8.007,8.007,8.007,8.007,8.007,8.007,8.007,8.007,8.007,8.007,8.007,8.0373,8.1208,8.2309,8.3828,8.5954,8.5878,8.6713,8.9675,8.8498,8.8156,8.9865,9.0016,9.0016,9.0016,8.9599,8.9371,8.9371,8.9371,8.9371,8.9371,8.9789,9.0016,9.0016,9.0016,9.0016,9.0016,9.0016,9.0016,3.1652,4.4752,5.7268,6.4564,6.8766,7.1734,7.4201,7.4653,7.4679,7.5245,7.3236,7.111,7.016,6.9971,6.9971,6.9971,7.0768,7.1983,7.3691,7.4754,7.5552,7.6083,7.6159,7.54,7.3501,7.2628,7.2287,7.2476,7.2514,7.3653,7.6311,7.7146,7.8323,8.0032,8.007,8.007,8.007,8.007,8.007,8.007,8.007,8.007,8.007,8.007,8.007,8.007,8.007,8.007,8.007,8.007,8.007,8.007,8.007,8.007,8.007,8.007,8.007,8.007,8.007,8.007,8.007,8.007,8.007,8.007,8.007,8.007,8.007,8.007,8.007,8.007,8.007,8.007,8.007,8.007,8.007,8.007,8.007,8.007,8.0297,8.0981,8.1133,8.0905,8.0221,8.007,8.0335,8.1019,8.2499,8.4132,8.584,8.6068,8.7055,8.9713,8.8498,8.8156,8.9865,9.0016,9.0016,9.0016,9.0016,9.0016,9.0016,9.0016,9.0016,9.0016,9.0016,9.0016,9.0016,9.0016,9.0016,9.0016,9.0016,9.0016,2.9579,4.2853,5.7257,6.6052,6.9995,7.1776,7.1881,7.3172,7.3991,7.2741,7.1148,6.9971,6.9971,6.9971,6.9971,6.9971,6.9971,7.0578,7.2287,7.2514,7.3577,7.6539,7.688,7.6804,7.6577,7.521,7.3767,7.2287,7.2362,7.3236,7.4944,7.6653,7.8323,8.0032,8.007,8.007,8.007,8.007,8.007,8.007,8.007,8.007,8.007,8.007,8.007,8.007,8.007,8.007,8.007,8.007,8.007,8.007,8.007,8.007,8.007,8.007,8.007,8.007,8.007,8.007,8.007,8.007,8.007,8.007,8.007,8.007,8.007,8.007,8.007,8.007,8.007,8.007,8.007,8.007,8.007,8.007,8.007,8.0259,8.0715,8.1892,8.2272,8.193,8.0373,8.0259,8.0867,8.2234,8.3866,8.5537,8.7245,8.7473,8.8118,8.9827,8.8688,8.8422,8.9865,9.0016,9.0016,9.0016,9.0016,9.0016,9.0016,9.0016,9.0016,9.0016,9.0016,9.0016,9.0016,9.0016,9.0016,9.0016,9.0244,9.0206,4.0286,4.8691,5.7026,6.5987,6.9995,7.1776,7.1881,7.2336,7.2698,7.2513,7.1148,6.9971,6.9971,6.9971,6.9971,6.9971,6.9971,7.0578,7.2287,7.2514,7.2704,7.3312,7.3388,7.2818,7.1413,7.1034,7.073,7.0426,7.1717,7.3236,7.4944,7.6653,7.8323,8.0032,8.007,8.007,8.007,8.007,8.007,8.007,8.007,8.007,8.007,8.007,8.007,8.007,8.007,8.007,8.007,8.007,8.007,8.007,8.007,8.007,8.007,8.007,8.007,8.007,8.007,8.007,8.007,8.007,8.007,8.007,8.007,8.007,8.007,8.007,8.007,8.007,8.007,8.007,8.007,8.007,8.007,8.007,8.007,8.1095,8.1702,8.0677,8.1512,8.193,8.0373,8.1171,8.212,8.2385,8.3866,8.5537,8.7245,8.7473,8.8118,8.9827,8.9751,8.9675,8.9979,9.0016,9.0016,9.0016,9.0016,9.0016,9.0016,9.0016,9.0016,9.0016,9.0016,9.0016,9.0016,9.0016,9.0016,9.0054,9.1421,9.1345,4.1334,4.857,5.5606,6.304,6.9018,7.2634,7.0963,7.2102,7.2645,6.9493,6.9386,6.9567,6.8444,6.9142,6.9883,6.997,6.9971,7.0274,7.1072,7.1186,7.1527,7.24,7.2514,7.2514,7.259,7.1793,7.1299,7.1299,7.2021,7.3236,7.4944,7.6653,7.8323,8.0032,8.007,8.007,8.007,8.007,8.007,8.007,8.007,8.007,8.007,8.007,8.007,8.007,8.007,8.007,8.007,8.007,8.007,8.007,8.007,8.007,8.007,8.007,8.007,8.007,8.007,8.007,8.007,8.007,8.007,8.007,8.007,8.007,8.007,8.007,8.007,8.007,8.007,8.007,8.007,8.007,8.007,8.007,8.007,8.0677,8.1474,8.2423,8.1854,8.1512,8.2461,8.2499,8.2727,8.36,8.5195,8.6562,8.7359,8.8232,8.9105,8.9941,9.0016,9.0016,9.0016,9.0016,9.0016,9.0016,9.0016,9.0016,9.0016,9.0016,9.0016,9.0016,8.9855,8.9804,8.9804,8.9687,9.0074,9.0941,9.174,9.1702,3.9744,4.6897,5.4186,5.9935,6.6718,7.1532,6.9625,7.1334,7.187,6.6724,6.81,6.9622,6.7615,6.8634,6.9809,6.9926,6.997,6.9971,6.9971,6.9971,7.0464,7.1793,7.1945,7.2476,7.3805,7.3084,7.2514,7.2514,7.2818,7.3805,7.5476,7.6842,7.8323,8.0032,8.007,8.007,8.007,8.007,8.007,0.0,8.007,8.007,8.007,8.007,8.007,8.007,8.007,8.007,8.007,8.007,8.007,8.007,8.007,8.007,8.007,8.007,8.007,8.007,8.007,8.007,8.007,8.007,8.007,8.007,8.007,8.007,8.007,8.007,8.007,8.007,8.007,8.007,8.007,8.007,8.0335,8.0601,8.0601,8.1171,8.2309,8.4511,8.3183,8.2385,8.4587,8.3828,8.3562,8.5233,8.6941,8.8004,8.8004,8.9181,9.0016,9.0016,9.0016,9.0016,9.0016,9.0016,9.0016,9.0016,9.0016,9.0016,9.0016,8.9896,8.9811,8.9811,8.9638,8.9549,8.9549,8.9304,9.0086,9.1741,9.1745,9.1934,3.9386,4.6135,5.3695,5.8647,6.2379,6.5525,6.794,6.8866,6.8612,6.6629,6.918,7.1193,6.9487,6.949,6.979,6.9798,6.9884,6.9971,6.9971,6.9971,7.0047,7.0198,7.0198,7.0274,7.0426,7.1679,7.2514,7.2514,7.3919,7.5552,7.726,7.7488,7.8323,8.0032,8.007,8.007,8.007,8.007,8.007,8.007,8.007,8.007,8.007,8.007,8.007,8.007,8.007,8.007,8.007,8.007,8.007,8.007,8.007,8.007,8.007,8.007,8.007,8.007,8.007,8.007,8.007,8.007,8.007,8.007,8.007,8.007,8.007,8.007,8.007,8.007,8.007,8.007,8.007,8.007,8.1171,8.2196,8.2196,8.4625,8.641,8.5195,8.5954,8.641,8.5157,8.4815,8.5309,8.6979,8.8688,8.9751,8.9751,8.9903,9.0016,9.0016,9.0016,9.0016,9.0016,9.0016,9.0016,9.0016,9.0016,9.0016,9.0016,8.9559,8.9281,8.9281,8.9261,8.9253,8.9253,8.9233,9.0086,9.1741,9.1763,9.2582,3.5886,4.1989,4.8654,5.1278,5.647,6.1506,6.3801,6.5747,6.708,6.7015,7.0327,7.2332,6.9465,6.8168,6.8059,6.9534,6.8763,6.8451,6.978,6.9971,6.9971,6.9971,6.9971,6.9971,6.9971,7.1527,7.2514,7.2514,7.502,7.6842,7.7526,7.8513,7.9386,8.007,8.007,8.007,8.007,8.007,8.007,8.007,8.007,8.007,8.007,8.007,8.007,8.007,8.007,8.007,8.007,8.007,8.007,8.007,8.007,8.007,8.007,8.007,8.007,8.007,8.007,8.007,8.007,8.007,8.007,8.007,8.007,8.007,8.007,8.007,8.007,8.007,8.007,8.007,8.0335,8.1284,8.1968,8.2689,8.3714,8.5005,8.6068,8.641,8.6182,8.6068,8.641,8.6448,8.6713,8.7359,8.8791,8.9704,8.9562,8.9552,8.9552,8.9552,8.9552,9.0002,9.1197,9.1277,9.1368,9.1497,9.1371,9.0762,8.9554,8.9349,8.9224,8.9224,8.9151,8.9104,8.9104,8.8945,8.9742,9.142,9.2367,9.3149,3.2469,3.7795,4.3705,4.448,5.0959,5.7814,6.0262,6.1659,6.3142,6.5612,6.9796,7.194,6.8419,6.6851,6.667,6.8471,6.7593,6.7468,6.9665,6.9971,6.9971,6.9971,6.9971,6.9971,6.9971,7.1527,7.2514,7.2514,7.5628,7.7564,7.7564,7.9158,8.007,8.007,8.007,8.007,8.007,8.007,8.007,8.007,8.007,8.007,8.007,8.007,8.007,8.007,8.007,8.007,8.007,8.007,8.007,8.007,8.007,8.007,8.007,8.007,8.007,8.007,8.007,8.007,8.007,8.007,8.007,8.007,8.007,8.007,8.007,8.007,8.007,8.007,8.007,8.0449,8.1171,8.2803,8.3562,8.4246,8.5423,8.6106,8.6789,8.8004,8.7245,8.6789,8.7923,8.8155,8.8155,8.8018,8.8896,8.9506,8.9253,8.9224,8.9224,8.9224,8.9224,8.9781,9.116,9.1283,9.1361,9.154,9.137,9.0641,8.9238,8.9077,8.9293,8.9777,8.9703,8.9686,8.9686,8.948,9.0219,9.1856,9.2491,9.3575,2.9824,3.4242,3.9849,3.9596,4.6367,5.4145,5.8029,5.6352,5.5691,6.1774,6.7056,6.9577,6.6315,6.5932,6.613,6.6281,6.6512,6.7468,6.9665,6.9971,6.9971,6.9971,6.9971,6.9971,6.9971,7.1527,7.2514,7.2514,7.5628,7.7564,7.7564,7.9158,8.007,8.007,8.007,8.007,8.007,8.007,8.007,8.007,8.007,8.007,8.007,8.007,8.007,8.007,8.007,8.007,8.007,8.007,8.007,8.007,8.007,8.007,8.007,8.007,8.007,8.007,8.007,8.007,8.007,8.007,8.007,8.007,8.007,8.007,8.007,8.007,8.007,8.007,8.007,8.1246,8.2841,8.4511,8.622,8.7435,8.7435,8.8764,8.9979,8.9979,8.9979,8.9899,8.9647,8.981,8.9809,8.9292,8.9429,8.9506,8.9253,8.9224,8.9224,8.9224,8.9224,8.9224,8.9224,8.9224,8.9229,8.9266,8.9266,8.9191,8.9046,8.8788,8.9451,9.1117,9.1154,9.1154,9.1154,9.1145,9.193,9.3426,9.1893,9.3809,2.6444,3.1007,3.6488,3.801,4.3452,4.8689,4.9723,5.454,5.8871,5.9325,6.2567,6.5316,6.5197,6.4723,6.5265,6.7964,6.7445,6.7468,6.9665,6.9971,6.9971,6.9971,6.9971,6.9971,6.9971,7.1527,7.2514,7.2514,7.5628,7.7564,7.7564,7.9158,8.007,8.007,8.007,8.007,8.007,8.007,8.007,8.007,8.007,8.007,8.007,8.007,8.007,8.007,8.007,8.007,8.007,8.007,8.007,8.007,8.007,8.007,8.007,8.007,8.007,8.007,8.007,8.007,8.007,8.007,8.007,8.007,8.007,8.007,8.007,8.007,8.007,8.0601,8.2841,8.379,8.4587,8.6258,8.7093,8.7777,8.8953,8.9637,9.0016,9.0016,8.9853,8.9703,8.9634,8.9514,8.9407,8.9245,8.9224,8.9168,8.9114,8.8944,8.8831,8.8831,8.8831,8.9356,9.0692,9.0822,9.0872,9.0964,8.9597,8.8811,8.8757,8.8658,8.9443,9.1145,9.1183,9.1706,9.2753,9.2753,9.3014,9.35,9.4182,9.5342,2.6951,3.0291,3.4385,3.7324,4.1045,4.4564,4.6777,5.1654,5.5468,5.4555,5.7573,6.0781,6.1999,6.43,6.6463,6.7995,6.8356,6.8802,6.9854,6.9971,6.9971,6.9971,6.9971,6.9971,6.9971,7.092,7.1565,7.1565,7.4109,7.5931,7.6577,7.8209,7.9424,8.007,8.007,8.007,8.007,8.007,8.007,8.007,8.007,8.007,8.007,8.007,8.007,8.007,8.007,8.007,8.007,8.007,8.007,8.007,8.007,8.007,8.007,8.007,8.007,8.007,8.007,8.007,8.007,8.007,8.007,8.007,8.007,8.007,8.0221,8.0791,8.0943,8.174,8.5043,8.5916,8.6334,8.8004,8.8422,8.8687,8.9666,8.9853,8.9809,8.9747,8.9574,8.9458,8.939,8.9295,8.9163,8.9027,8.9002,8.8982,8.8883,8.8718,8.8629,8.8629,8.8629,8.9119,9.0341,9.0438,9.0491,9.055,8.9344,8.8629,8.8629,8.9256,9.0369,9.2005,9.2678,9.3472,9.4444,9.4444,9.4444,9.4482,9.5528,9.6398,3.0113,3.1425,3.3398,3.7331,3.9263,4.1756,4.756,4.7813,4.7026,4.7716,5.1747,5.5407,5.6485,6.3024,6.7834,6.6439,6.9449,7.1639,7.0798,7.0882,7.092,7.0578,7.054,7.0388,7.0009,6.9971,6.9971,6.9971,7.1679,7.3388,7.4944,7.6766,7.8437,8.0032,8.007,8.007,8.007,8.007,8.007,8.007,8.007,8.007,8.007,8.007,8.007,8.007,8.007,8.007,8.007,8.007,8.007,8.007,8.007,8.007,8.007,8.007,8.007,8.007,8.007,8.0145,8.0259,8.0259,8.0259,8.0259,8.0259,8.0259,8.0563,8.2006,8.2575,8.3524,8.6789,8.7624,8.8004,8.9559,8.9939,8.9894,8.9638,8.9578,8.9504,8.9261,8.9212,8.9163,8.9045,8.9099,8.9077,8.8707,8.8848,8.8911,8.8679,8.8629,8.8629,8.8629,8.8629,8.8629,8.8629,8.8629,8.8629,8.8629,8.8629,8.8703,8.8807,9.0331,9.1913,9.3558,9.5137,9.6014,9.62,9.62,9.6275,9.6387,9.6387,9.7265,2.7658,3.006,3.3398,3.7331,3.9263,4.0627,4.2076,4.3601,4.3554,3.9609,4.1968,4.5039,4.6078,4.9402,5.4963,6.4083,7.2398,7.7674,7.7435,7.972,8.0032,7.6235,7.5779,7.4261,7.035,6.9971,6.9971,6.9971,7.2742,7.4602,7.502,7.7867,7.969,8.007,8.007,8.007,8.007,8.007,8.007,8.007,8.007,8.007,8.007,8.007,8.007,8.007,8.007,8.007,8.007,8.007,8.007,8.007,8.007,8.007,8.007,8.007,8.007,8.007,8.007,8.0867,8.1892,8.1892,8.1892,8.1892,8.1892,8.1892,8.1968,8.2309,8.4284,8.675,8.8615,8.9094,8.915,8.9356,8.9401,8.9391,8.9307,8.9334,8.9285,8.9233,8.9146,8.9082,8.904,8.8911,8.8743,8.8654,8.8712,8.8707,8.8637,8.8629,8.8629,8.8629,8.8629,8.8629,8.8629,8.8629,8.8629,8.8629,8.8629,8.9218,9.0518,9.0958,9.2223,9.4485,9.492,9.6053,9.7965,9.7965,9.8578,9.973,9.973,10.0344,2.8956,3.0903,3.3398,3.7331,3.8692,3.9118,3.9294,3.946,3.8538,3.4971,3.7158,4.0202,4.1833,4.587,5.1923,6.0973,6.8228,7.2455,7.1672,7.4461,7.6389,7.601,7.5546,7.5058,7.4678,7.3236,7.2325,7.2325,7.3995,7.5362,7.6159,7.7943,7.9272,8.007,8.007,8.007,8.007,8.007,8.007,8.007,8.007,8.007,8.007,8.007,8.007,8.007,0.0,8.007,8.007,8.007,8.0525,8.1095,8.0373,8.0525,8.1095,8.0373,8.007,8.0183,8.0905,8.1702,8.2537,8.3335,8.3069,8.2537,8.3335,8.3031,8.2765,8.4322,8.643,8.8449,8.9213,8.942,8.9397,8.9253,8.9224,8.9194,8.9151,8.9125,8.9126,8.8982,8.8877,8.8856,8.8856,8.8499,8.8176,8.8176,8.7944,8.7744,8.7744,8.7744,8.7744,8.7744,8.7744,8.7744,8.7744,8.8004,8.8176,8.8176,8.7924,8.8799,9.1167,9.1945,9.3663,9.6494,9.7281,9.8272,9.9638,9.9638,10.0063,10.0906,10.0906,10.1177,3.2021,3.3191,3.4251,3.7561,3.8057,3.7794,3.8149,3.6058,3.3791,3.2702,3.4778,3.7492,3.9784,4.5176,5.1289,5.7493,6.0612,6.2502,6.3086,6.6643,7.0489,7.401,7.4194,7.5438,7.8969,7.6956,7.5438,7.5438,7.5893,7.6804,7.8209,7.8551,7.9234,8.0411,8.0449,8.0563,8.0789,8.0561,8.0522,8.0744,8.0256,8.0295,8.0789,8.0563,8.0601,8.0829,0.0,8.0601,8.0791,8.0563,8.136,8.2689,8.136,8.1474,8.2272,8.1246,8.0677,8.0677,8.2272,8.2954,8.337,8.4813,8.4279,8.3364,8.4807,8.4237,8.3744,8.6857,8.8465,8.9216,8.9219,8.9167,8.9196,8.9158,8.911,8.9125,8.8977,8.8901,8.8766,8.8557,8.8426,8.8334,8.8334,8.7894,8.7494,8.7494,8.7024,8.6681,8.6681,8.6556,8.6405,8.6405,8.6277,8.6228,8.6392,8.6914,8.7206,8.7114,8.6671,8.7933,9.1219,9.2859,9.5294,9.8652,10.0035,10.0772,10.094,10.094,10.1034,10.1289,10.1289,10.1316,3.46,3.6533,3.8049,3.8637,3.824,3.7728,3.7796,3.5201,3.2687,3.2484,3.2123,3.2423,3.4446,3.6241,4.1449,5.3781,5.3771,5.5965,6.6908,7.5388,7.945,7.655,7.8979,7.9576,7.6159,7.6615,7.7184,7.7184,7.9728,8.1398,8.1664,8.3031,8.3259,8.212,8.2082,8.2682,8.4031,8.2632,8.2507,8.3687,8.1028,8.1265,8.3995,8.2683,8.2841,8.4132,0.0,0.0,8.4094,8.2651,8.3031,8.4549,8.4322,8.3486,8.2537,8.3752,8.3297,8.2309,8.398,8.5372,8.6423,8.6688,8.6506,8.6234,8.654,8.6385,8.6616,8.8444,8.9084,8.9214,8.9097,8.9064,8.8996,8.8789,8.8749,8.8734,8.8699,8.8259,8.785,8.7806,8.7373,8.6988,8.6988,8.6904,8.6867,8.6867,8.6744,8.6681,8.6681,8.5814,8.5227,8.5227,8.4346,8.4135,8.5134,8.5291,8.5126,8.4556,8.4972,8.706,9.1192,9.2859,9.556,9.9455,9.9782,10.027,10.1022,10.1022,10.1739,10.3025,10.3025,10.3365,3.6119,3.9626,4.2379,3.9824,3.8762,3.8103,3.7191,3.4643,3.2455,3.2455,3.1512,3.1314,3.3249,3.5877,4.0516,4.9098,5.1143,5.5188,6.5325,7.3951,7.9516,8.0364,8.1554,8.2132,8.1718,8.1585,8.1087,7.9941,8.2261,8.3631,8.3497,8.4349,8.4485,8.3688,8.3749,8.4034,8.453,8.3775,8.3732,8.4346,8.2895,8.3049,8.453,8.3807,8.3912,8.4597,8.3798,0.0,8.479,8.3991,8.4729,8.622,8.5309,8.5005,8.5157,8.5005,8.4393,8.3802,8.4561,8.5794,8.7115,8.7951,8.7627,8.7052,8.7888,8.8116,8.8203,8.8893,8.8518,8.7857,8.7784,8.7763,8.7741,8.7597,8.757,8.757,8.757,8.7362,8.7155,8.7155,8.6916,8.6681,8.6681,8.6358,8.6088,8.6088,8.5274,8.4701,8.4701,8.3659,8.2922,8.2922,8.2452,8.236,8.2886,8.3129,8.3369,8.364,8.4687,8.6855,9.0361,9.2815,9.572,9.9132,10.0837,10.1898,10.2354,10.2354,10.2691,10.3404,10.3404,10.3597,4.051,0.0,4.6039,4.2816,4.1206,3.997,0.0,3.5845,3.3646,3.305,3.2094,3.1934,3.3603,3.6794,4.0853,4.5921,4.8727,5.3505,6.2772,6.8168,7.3435,7.9566,8.0482,8.1733,8.4665,8.5205,8.4748,8.3139,8.4767,8.5729,8.5497,8.5676,8.5629,8.525,8.5717,8.5784,8.5479,8.5064,8.503,8.5342,8.461,8.4681,8.5441,8.5118,8.5144,8.5489,8.5106,0.0,8.5781,8.5402,8.6296,8.7758,8.6466,8.6504,8.7226,8.6276,8.5633,8.5326,8.5667,8.6537,8.7615,8.8775,8.8473,8.7832,8.8864,8.9368,8.956,8.956,8.8707,8.7793,8.7793,8.7793,8.7793,8.7793,8.7793,8.7793,8.7793,8.765,8.7435,8.7046,8.6862,8.6607,8.6256,8.5495,8.4947,8.4947,8.3595,8.2593,8.2593,8.156,8.0842,8.0842,8.0642,8.0599,8.0821,8.1523,8.2395,8.3462,8.4863,8.7112,9.0311,9.3084,9.6061,9.9257,10.1693,10.3063,10.3404,10.3404,10.3404,10.3404,10.3404,10.3404,0.0,5.0491,4.8182,4.9303,4.7185,4.4496,4.3136,4.028,0.0,3.4781,3.3813,3.3691,3.457,3.5445,3.8613,4.6315,4.4468,4.7032,6.123,5.9558,6.0123,6.8998,7.3412,7.633,7.7912,8.3335,8.6706,8.6522,8.798,8.8896,8.888,8.8896,8.822,8.6808,8.8156,8.8846,8.8682,8.7144,8.7015,8.83,8.5379,8.5651,8.865,8.7325,8.751,0.0,8.7354,8.7556,0.0,8.7341,8.7656,8.908,8.8967,8.8088,8.7097,8.8433,8.8001,8.6959,8.8409,8.8968,8.9034,8.9047,8.9373,8.9684,8.9197,9.0071,9.1183,9.1183,9.1109,9.1036,9.1036,9.1036,9.1036,9.1036,9.1036,9.1036,9.1036,9.0467,8.9523,8.8032,8.7281,8.6416,8.4966,8.3843,8.3194,8.3194,8.2154,8.1376,8.1376,8.035,7.9621,7.9621,7.8767,7.8588,7.9531,8.1219,8.2714,8.3863,8.5277,8.7977,9.2146,9.3822,9.6707,10.1004,10.1307,10.2113,10.3404,10.3404,10.3404,10.3404,10.3404,10.3404,5.2616,5.3118,5.2748,5.0254,4.9275,4.7805,4.3598,4.165,3.9524,3.5275,3.4688,3.494,3.4805,3.6777,4.0463,4.6629,4.6245,5.0047,6.3906,6.5203,6.807,7.713,7.8946,8.0402,8.2817,8.3614,8.4642,8.6301,8.8078,8.9012,8.887,8.9026,8.8737,8.7985,8.8549,8.8831,8.8796,8.8158,8.811,8.8629,8.7428,8.7543,8.8758,8.8216,8.8324,8.8894,8.9362,8.9936,0.0,8.9932,9.0117,9.0691,8.9636,8.9518,8.9908,9.0031,9.0232,9.056,9.0658,9.0628,9.056,9.0501,9.0651,9.079,9.0567,9.0255,9.0228,9.1221,9.0789,9.0028,9.0028,9.0028,8.9795,8.8802,8.8585,8.8297,8.7354,8.6885,8.6516,8.5906,8.5607,8.506,8.3789,8.3266,8.2762,8.2016,8.0905,8.0175,8.0175,7.9212,7.854,7.854,7.8976,7.98,8.1089,8.2646,8.373,8.4188,8.6502,8.929,9.2621,9.4141,9.6543,9.9988,10.087,10.1538,10.2113,10.3,10.3404,10.3404,10.3404,10.3404,5.5673,5.6157,5.6011,5.3108,5.2483,5.1029,4.5282,4.3654,4.184,3.6541,3.6112,3.663,3.6479,3.8635,4.186,4.625,4.7343,5.234,6.5806,6.8771,7.2773,8.1411,8.1653,8.1968,8.4064,8.4252,8.4993,8.6759,8.8144,8.8819,8.8637,8.8826,8.8811,8.8637,8.8629,8.8882,8.9443,8.8919,8.8919,8.9443,8.8882,8.8629,8.8666,8.9218,8.9443,8.9555,9.1183,9.169,9.134,9.1829,9.1834,9.1472,9.0571,9.0896,9.1865,9.1124,9.1448,9.2219,9.166,9.144,9.1352,9.1352,9.0849,9.0448,9.1493,9.1292,9.0902,9.199,9.1526,9.0688,9.0688,9.0332,8.9672,8.8637,8.7995,8.7335,8.6282,8.6032,8.5768,8.4976,8.4817,8.4303,8.2721,8.215,8.1621,8.0821,7.9745,7.9004,7.9004,7.878,7.8639,7.8639,7.9896,8.1343,8.279,8.4236,8.5322,8.5755,8.8149,9.0567,9.2885,9.435,9.6239,9.8636,9.952,10.0217,10.0647,10.1575,10.2242,10.2739,10.2669,10.319,6.1672,6.0218,5.733,5.8873,5.7469,5.427,4.9019,4.6832,4.4372,3.8858,3.8241,3.8991,3.9859,4.0692,4.2145,4.5026,4.6733,5.2483,6.6259,6.8026,7.0833,7.8618,7.9344,7.9312,7.9503,8.5029,8.8629,8.8629,8.8629,8.8629,8.8629,8.8629,8.8629,8.8629,8.8629,8.9443,9.1145,8.948,8.948,9.1145,8.9443,8.8629,8.8703,9.0406,9.1183,9.1257,9.2828,9.2641,0.0,9.2856,9.2594,9.1223,9.2012,9.2326,9.2294,9.1618,9.1389,9.1389,9.1375,9.1375,9.1375,9.1375,8.9818,8.852,9.1729,9.3258,9.3881,9.3881,9.3881,9.3881,9.3881,9.2704,9.1544,9.1508,9.0314,8.919,8.919,8.9154,8.837,8.5834,8.5272,8.4453,8.1734,8.0318,7.952,7.9554,7.8702,7.8039,7.8039,7.9239,8.0127,8.0101,8.1409,8.2856,8.4249,8.5782,8.7322,8.8713,9.0188,9.1634,9.3022,9.4435,9.5834,9.7118,9.7173,9.787,9.9303,9.9066,9.9733,10.1286,10.1163,10.2747,5.9265,5.924,5.8453,5.9111,5.9419,5.7687,5.0431,4.8688,4.6713,3.9938,3.9407,4.0159,4.0065,4.1492,4.3335,4.5176,4.9477,5.5373,6.3534,7.0355,7.6518,8.1873,8.446,8.457,8.1326,8.5661,8.8629,8.8629,8.8629,8.8629,8.8629,8.8629,8.8629,8.8629,8.8629,8.8882,8.9368,8.8882,8.8882,8.9368,8.8882,8.8629,8.8703,9.0406,9.1183,9.1332,9.407,9.407,0.0,9.3796,9.322,9.1321,9.1552,9.2321,9.3198,9.2587,9.3028,9.3889,9.3313,9.3164,9.3164,9.3164,9.2668,9.2279,9.3246,9.2959,9.2471,9.356,9.3881,9.3631,9.2507,9.1098,8.9636,8.853,8.7924,8.7299,8.6175,8.5367,8.4627,8.3836,8.3027,8.2279,8.176,8.222,8.2698,8.2921,8.361,8.3704,8.2625,8.2829,8.2698,8.1705,8.3868,8.5047,8.4286,8.5732,8.6781,8.7058,8.9516,9.1042,9.1172,9.256,9.3489,9.3921,9.4781,9.6119,9.785,9.8594,9.9745,10.1286,10.2277,10.3817,5.8161,5.8834,5.9078,5.9873,6.0641,5.9401,5.24,5.0276,4.8088,4.2173,4.0893,4.1283,4.2773,4.3676,4.5228,4.8383,5.1981,5.7214,6.5349,7.1933,7.8129,8.4227,8.6685,8.675,8.3935,8.6199,8.7974,8.8251,8.8479,8.8388,8.7904,8.7847,8.7847,8.7847,8.7847,8.8181,8.8802,8.8181,8.8181,8.8813,8.8426,8.826,8.8335,9.0617,9.165,9.1789,9.4136,9.3973,0.0,9.3817,9.3235,9.1456,9.244,9.3405,9.4147,9.3446,9.3791,9.4548,9.4031,9.3881,9.3881,9.3881,9.3881,9.3881,9.3881,9.3239,9.2811,9.4434,9.4399,9.3809,9.3578,9.2294,9.0688,8.9137,8.7445,8.6128,8.5792,8.48,8.3896,8.3466,8.282,8.227,8.2013,8.3171,8.4194,8.4349,8.5683,8.6138,8.4572,8.49,8.473,8.325,8.4486,8.5264,8.4751,8.515,8.5617,8.6047,8.7832,8.9045,8.9374,9.0704,9.1433,9.1433,9.2217,9.3506,9.5334,9.5947,9.7716,10.054,10.1923,10.3697,5.8044,5.8973,5.9351,6.0945,6.1371,6.0039,5.4749,5.1681,4.8841,4.4938,4.2458,4.2365,4.6884,4.6922,4.8198,5.4074,5.5582,5.984,7.0748,7.3774,7.78,8.577,8.6681,8.6681,8.6681,8.6681,8.6965,8.7542,8.8128,8.7954,8.6744,8.6681,8.6681,8.6681,8.6681,8.7378,8.8785,8.7415,8.7415,8.8785,8.7958,8.7586,8.7697,9.0652,9.2035,9.2086,9.3195,9.2684,0.0,9.3019,9.2758,9.1407,9.3956,9.4932,9.4868,9.4141,9.3881,9.3881,9.3881,9.3881,9.3881,9.3881,9.3774,9.3667,9.3667,9.3667,9.4006,9.5524,9.4934,9.422,9.5595,9.4735,9.3108,9.1558,8.8111,8.5576,8.698,8.6283,8.5115,8.414,8.3921,8.3493,8.2569,8.3743,8.4769,8.4769,8.6209,8.6609,8.4778,8.5789,8.6029,8.4463,8.3856,8.4057,8.5192,8.424,8.412,8.5419,8.5643,8.6267,8.7569,8.8992,8.9699,8.9699,8.9823,9.0776,9.2631,9.2556,9.4833,9.9289,10.0768,10.3112,5.827,5.9509,6.0069,6.1723,6.2462,6.1518,5.6798,5.3422,4.9936,4.5111,4.3168,4.3587,4.7651,5.0475,5.444,6.1189,6.7268,7.274,7.7315,8.1405,8.4598,8.6497,8.6681,8.6681,8.6681,8.6681,8.6731,8.688,8.7012,8.6976,8.673,8.6681,8.6681,8.6681,8.6681,8.6865,8.7195,8.6865,8.6865,8.7195,8.7014,8.6929,8.6965,8.8865,8.9711,8.9821,9.1372,9.079,0.0,9.1808,9.1657,8.9975,9.2959,9.4141,9.4104,9.3938,9.3881,9.3881,9.3881,9.3881,9.3881,9.3881,9.306,9.2043,9.2043,9.2043,9.2115,9.249,9.3239,9.3702,9.2811,9.1658,9.0291,8.8707,8.686,8.554,8.5872,8.5092,8.4235,8.4007,8.3246,8.2896,8.377,8.6116,8.7858,8.7858,9.0061,9.0315,8.6392,8.6182,8.5683,8.3941,8.3664,8.357,8.3568,8.3554,8.3633,8.3743,8.4982,8.5701,8.5715,8.7875,8.9039,8.9039,9.0039,9.1478,9.3279,9.4658,9.6498,9.8796,10.1736,10.4788,5.672,5.8065,5.9176,6.1757,6.2584,6.2242,5.9962,5.6404,5.2554,4.8888,4.631,4.5473,4.7945,5.267,5.7821,6.2867,6.8739,7.4025,7.8045,8.0082,8.1914,8.385,8.4097,8.4297,8.4855,8.4938,8.5259,8.6065,8.612,8.5532,8.4127,8.4097,8.4402,8.5083,8.5119,8.5442,8.6123,8.6123,8.6123,8.614,8.7228,8.7371,8.6737,8.8298,8.8619,8.7896,8.7763,8.7379,8.6937,8.9331,8.9885,8.9547,9.2686,9.3881,9.3881,9.3881,9.3881,9.3881,9.3881,9.3881,9.3464,9.0908,8.9533,8.8846,8.8846,8.9353,9.0171,9.1551,9.2447,9.3029,9.2954,9.1956,9.0366,8.8163,8.7694,8.7415,8.6067,8.5525,8.5285,8.5285,8.4802,8.4822,8.6248,8.8379,8.9859,8.9859,9.1022,9.0537,8.6794,8.5563,8.4226,8.2299,8.2654,8.3167,8.3497,8.2632,8.2003,8.1905,8.2717,8.3118,8.2908,8.5873,8.7553,8.7553,8.8826,9.0389,9.2187,9.3146,9.5317,9.8585,10.1148,10.4461,5.5061,5.6627,5.8532,6.1756,6.2637,6.2789,6.3047,5.9904,5.626,5.4051,5.0915,4.9028,5.058,5.6066,6.1644,6.5483,6.9703,7.4037,7.8541,7.7927,7.8087,8.0929,8.1273,8.1655,8.2593,8.2689,8.3255,8.4666,8.5048,8.4248,8.21,8.1988,8.2517,8.3734,8.3768,8.4344,8.5492,8.5527,8.563,8.5904,8.7775,8.8024,8.6921,8.8232,8.7959,8.6395,8.469,0.0,8.5506,8.705,8.8386,8.964,9.2248,9.3418,9.3631,9.3347,9.3241,9.3225,9.296,9.2889,9.2192,8.8,8.6475,8.6234,8.6234,8.7073,8.8513,9.0884,9.1654,9.2116,9.341,9.263,9.0894,8.8535,8.8772,8.896,8.6703,8.6661,8.7124,8.7388,8.742,8.7815,8.9004,9.0188,9.0878,9.0615,9.0415,8.9129,8.5927,8.3852,8.2108,8.0636,8.1653,8.2809,8.378,8.1782,8.0365,8.0161,8.0365,8.0569,8.0801,8.4429,8.6542,8.6774,8.8064,8.9492,9.0961,9.1318,9.3891,9.8475,10.0134,10.3407,5.5576,5.8069,6.0682,6.2728,6.3676,6.4146,6.4434,6.3294,6.138,5.8627,5.6646,5.6652,6.0632,6.4975,7.0466,7.8063,8.2923,8.5913,8.6412,8.512,8.3437,8.1472,8.1273,8.1314,8.1458,8.1478,8.1566,8.1778,8.2971,8.404,8.4906,8.4965,8.5034,8.524,8.524,8.5343,8.5527,8.5527,8.6157,8.7404,8.7699,8.7709,8.756,8.7731,8.7088,8.5665,8.5396,8.5349,8.5639,8.7186,8.8723,9.0101,9.0524,9.1515,9.2529,9.1169,9.0685,9.05,8.9274,8.8845,8.8918,8.9472,8.8694,8.7628,8.7628,8.7743,8.796,8.8323,8.9424,9.0494,9.0701,8.9842,8.8838,8.8437,8.7764,8.7078,8.6698,8.7629,8.8905,9.0183,9.0413,9.0479,9.0676,9.0874,9.0549,8.93,8.9098,8.7418,8.2848,8.0458,7.9536,8.0373,8.1653,8.2469,8.2643,8.1296,7.9987,7.8845,7.987,8.0976,8.2119,8.5806,8.8326,8.9449,9.0728,9.1563,9.1784,9.35,9.5593,9.808,9.999,10.2881,5.4026,5.6733,5.9583,6.1372,6.2072,6.2573,6.3688,6.3894,6.3277,6.1262,6.1047,6.1326,6.1779,6.706,7.2584,7.641,8.1386,8.4758,8.4727,8.3398,8.172,7.9618,7.9405,7.9644,8.0219,8.025,8.0885,8.2359,8.262,8.3005,8.3651,8.3685,8.3685,8.3685,8.4466,8.4877,8.4877,8.5748,8.6511,8.7123,8.7935,8.7902,8.7115,8.7115,8.631,8.481,0.0,8.4035,8.4771,8.6348,8.7733,8.8982,8.9841,9.062,9.1113,9.0448,9.0208,9.0104,8.9462,8.7829,8.5955,8.5779,8.5284,8.4697,8.4697,8.5268,8.6029,8.677,8.8048,8.9203,8.9203,8.8822,8.8265,8.7619,8.7057,8.6894,8.7722,8.8379,8.9267,9.0709,9.0972,9.1207,9.2062,9.0735,8.9328,8.8712,8.6316,8.3789,8.1625,8.1802,8.1964,8.1619,8.2693,8.312,8.2469,8.1209,8.0219,7.9667,8.0831,8.2111,8.3353,8.7105,8.9419,8.9972,9.128,9.1962,9.1962,9.2805,9.4279,9.6251,9.7103,10.0008,5.2283,5.4584,5.7285,5.9967,6.0645,6.1122,6.2967,6.4187,6.4846,6.4419,6.5252,6.5651,6.4436,6.9296,7.3785,7.4689,7.8831,8.1892,8.1629,8.0364,7.8832,7.6989,7.7481,7.8244,7.9058,7.9779,8.1116,8.3324,8.3031,8.2947,8.3342,8.3375,8.3375,8.3375,8.3994,8.43,8.43,8.5044,8.5787,8.6604,8.7687,8.7852,8.7256,8.7256,8.6183,8.4294,8.3617,8.3615,8.4145,8.5758,8.7093,8.8207,8.9004,8.9538,8.982,8.9436,8.93,8.93,8.93,8.7375,8.4769,8.3737,8.3375,8.3375,8.3375,8.4105,8.514,8.6158,8.7181,8.7993,8.7993,8.7993,8.7801,8.6902,8.696,8.7519,8.8609,8.9431,9.0225,9.1306,9.1799,9.2391,9.3479,9.0753,8.8432,8.8432,8.4659,8.161,8.0972,8.2892,8.3925,8.296,8.3964,8.4303,8.342,8.2489,8.1791,8.15,8.2664,8.3876,8.5117,8.8286,9.0146,9.0495,9.1467,9.1962,9.1962,9.1962,9.2941,9.4869,9.4869,9.7378,5.0992,5.2251,5.4355,5.939,6.0645,6.1122,6.2967,6.5118,6.7264,6.921,6.9557,7.0419,7.3374,7.4578,7.5975,7.8557,8.0575,8.1384,8.0011,7.8724,7.6847,7.4024,7.6232,7.7981,7.8035,8.0486,8.2578,8.3675,8.4081,8.4927,8.6368,8.6461,8.6461,8.6461,8.4978,8.4201,8.4201,8.2682,8.3374,8.6342,8.6377,8.724,8.8741,8.8741,8.7068,8.4288,8.5797,8.5565,8.4276,8.5968,8.7492,8.8639,8.7376,8.7705,8.8738,8.7376,8.6848,8.6848,8.6848,8.6734,8.6565,8.6467,8.6461,8.6461,8.6461,8.65,8.6592,8.6674,8.6734,8.68,8.68,8.68,8.6773,8.6691,8.7722,8.8741,8.884,9.0981,9.292,9.2986,9.4103,9.5054,9.5152,9.1402,8.8432,8.8432,8.5612,8.2751,8.0745,8.1678,8.2952,8.3983,8.5233,8.5989,8.5931,8.5844,8.536,8.4225,8.5272,8.6523,8.7803,8.9216,9.0582,9.1845,9.1932,9.1962,9.1962,9.1962,9.2941,9.4869,9.4869,9.6065,5.0975,5.1787,5.2822,5.679,5.7776,5.8158,5.9553,6.2061,6.4511,6.5923,6.8848,7.1718,7.353,7.5102,7.6776,7.8849,7.9722,7.9976,7.9618,7.9149,7.8155,7.6203,7.6914,7.7859,7.8648,8.2108,8.4504,8.4857,8.5042,8.4968,8.4711,8.5505,8.5156,8.3499,8.3656,8.338,8.2562,8.1947,8.2197,8.3316,8.3316,8.3622,8.4198,8.4198,8.3611,8.2592,8.3167,8.3106,8.2592,8.3196,8.4378,8.5794,8.5277,8.6621,8.8675,8.7223,8.7289,8.7919,8.6993,8.6724,8.6724,8.6724,8.6724,8.6724,8.6724,8.6724,8.6724,8.6724,8.6724,8.6724,8.6724,8.6724,8.6927,8.782,8.8478,8.9366,9.1178,9.2394,9.338,9.4301,9.4922,9.5251,9.5251,9.2898,8.9981,8.681,8.4334,8.2859,8.2835,8.3993,8.5272,8.6552,8.7105,8.7017,8.6164,8.6105,8.5931,8.5534,8.6668,8.7948,8.9216,9.0553,9.1496,9.1962,9.1962,9.1962,9.1962,9.1962,9.2281,9.2982,9.2982,9.4077,4.8775,4.9724,5.0924,5.3373,5.4849,5.5848,5.6641,5.9019,6.1415,6.2738,6.7219,7.1323,7.2704,7.4957,7.6961,7.8079,7.8253,7.8144,7.7897,7.8238,7.7873,7.5988,7.746,7.8752,7.9089,8.2498,8.4865,8.5295,8.5062,8.4493,8.3624,8.3997,8.3439,8.1699,8.1936,8.1646,8.0818,8.0209,7.9948,7.9948,8.053,8.0786,8.0787,8.1386,8.1355,8.085,8.1386,8.1324,8.085,8.1418,8.2317,8.3318,8.3318,8.4577,8.6344,8.5983,8.6389,8.6929,8.5478,8.4993,8.4993,8.4993,8.4993,8.4993,8.4993,8.4993,8.5107,8.5681,8.5853,8.5965,8.6555,8.6724,8.7059,8.8478,8.9201,9.0221,9.2592,9.3479,9.4103,9.5087,9.5251,9.5038,9.4425,9.3333,9.0826,8.5883,8.4112,8.3503,8.4089,8.5698,8.7279,8.8559,8.8733,8.8559,8.8082,8.8093,8.8093,8.8093,8.8908,8.9751,9.0611,9.1454,9.1962,9.1962,9.1962,9.1962,9.1962,9.1962,9.1962,9.1962,9.1962,9.2627,4.45,4.5913,4.8437,4.9489,5.2078,5.4421,5.4518,5.6202,5.8288,6.0305,6.492,6.9197,7.1378,7.4328,7.6471,7.657,7.66,7.6134,7.4919,7.5844,7.5727,7.3198,7.7715,8.0523,7.933,8.1515,8.3583,8.481,8.4047,8.3558,8.3464,8.2287,8.1573,8.148,7.9916,7.9059,7.9029,7.7421,7.66,7.66,7.8253,7.9029,7.9096,8.0754,8.0594,7.9129,8.0786,8.0562,7.9162,8.0787,8.1512,8.1574,8.1574,8.1636,8.1885,8.3439,8.387,8.3442,8.2103,8.1637,8.1637,8.1637,8.1637,8.1637,8.1637,8.1637,8.1978,8.3648,8.4092,8.4472,8.6192,8.6642,8.707,8.8549,8.999,9.1437,9.2854,9.4268,9.5251,9.5251,9.5251,9.4672,9.289,9.2505,9.0825,8.5944,8.5215,8.4999,8.436,8.6512,8.8617,8.9914,9.0059,9.0553,9.1845,9.1962,9.1962,9.1962,9.1962,9.1962,9.1962,9.1962,9.1962,9.1962,9.1962,9.1932,9.1903,9.1932,9.1932,9.1903,9.1932,9.1962,4.7793,4.5577,4.4413,4.781,4.8759,4.9467,5.1819,5.282,5.4069,5.688,6.0451,6.4172,6.7842,7.1091,7.3944,7.6215,7.66,7.6774,7.7391,7.7769,7.8089,7.8328,7.9692,8.0867,8.1461,8.2945,8.3985,8.4337,8.3366,8.2302,8.1383,8.0997,7.993,7.8033,7.8438,7.8253,7.7278,7.6821,7.66,7.66,7.7036,7.7278,7.7313,7.7769,7.773,7.7313,7.7769,7.773,7.7347,7.7798,7.8723,7.982,7.982,8.121,8.2974,8.1188,8.0455,8.0535,8.1353,8.1637,8.1637,8.1637,8.1637,8.1637,8.1637,8.1637,8.173,8.2194,8.2348,8.2744,8.4413,8.5621,8.7104,8.9763,9.147,9.292,9.4363,9.4988,9.5251,9.5251,9.5251,9.4968,9.4078,9.2064,8.966,8.6962,8.6922,8.7192,8.701,8.8472,8.9943,9.1251,9.1396,9.1583,9.1932,9.1962,9.1962,9.1962,9.1962,9.1962,9.1962,9.1962,9.1962,9.1962,9.1962,9.1454,9.0524,9.1454,9.1467,9.0553,9.1483,9.1962,4.5386,4.213,3.9682,4.1684,4.2386,4.3683,4.7783,4.9132,5.0378,5.3566,5.7383,6.1074,6.4053,6.8244,7.2044,7.4277,7.6199,7.7472,7.7711,7.9143,8.0045,7.9725,8.0627,8.1762,8.3004,8.3324,8.344,8.344,8.182,8.0452,7.9725,7.9136,7.8176,7.6629,7.7297,7.7326,7.66,7.66,7.66,7.66,7.66,7.66,7.66,7.66,7.66,7.66,7.66,7.66,7.66,7.66,7.7174,7.8079,7.8079,7.9172,8.0554,7.8724,7.8079,7.8185,7.9192,7.9524,7.9524,7.9524,7.9524,7.9524,7.9524,7.9524,7.9655,8.0402,8.0594,8.11,8.3346,8.4532,8.5917,8.8882,8.9803,9.0758,9.3506,9.31,9.2722,9.4579,9.4301,9.3589,9.3028,9.1427,8.9782,8.8487,8.861,8.8879,8.8879,9.0001,9.1118,9.1874,9.1962,9.1962,9.1962,9.1962,9.1962,9.1962,9.1962,9.1962,9.1962,9.1962,9.1962,9.1962,9.1962,9.128,9.0001,9.0757,9.0466,8.9187,8.9955,9.0304,3.9146,3.6659,3.4918,3.3752,3.4796,3.7484,0.0,4.4517,4.6268,4.9587,5.4029,5.7822,5.948,6.4723,6.939,7.1254,7.5078,7.7584,7.6884,7.9812,8.1063,7.8612,8.0598,8.2605,8.3664,8.2955,8.241,8.241,8.0132,7.867,7.8525,7.7268,7.66,7.66,7.66,7.66,7.66,7.6716,7.6803,7.6803,7.6948,7.6948,7.6803,7.6803,7.6716,7.66,7.66,7.66,7.66,7.66,7.66,7.66,7.66,7.66,7.66,7.66,7.66,7.66,7.66,7.66,7.66,7.66,7.66,7.66,7.66,7.66,7.6891,7.8421,7.895,7.971,8.2543,8.3553,8.4422,8.7036,8.6764,8.7103,9.1318,9.0024,8.9299,9.3382,9.2934,9.1737,9.1123,9.0871,9.0704,9.0558,9.0369,9.0204,9.0204,9.1443,9.2184,9.1932,9.2143,9.2184,9.1962,9.1816,9.1729,9.1729,9.1613,9.1525,9.1525,9.1525,9.1525,9.1525,9.1671,9.0989,8.9565,8.9855,8.9245,8.7832,8.7977,8.789,0.0,0.0,0.0,0.0,0.0,0.0,0.0,3.6489,3.7989,4.1673,4.3931,4.684,5.2185,5.6335,6.1188,6.812,7.1451,7.4379,7.7707,7.8787,7.87,7.7152,7.9252,8.0947,8.118,8.1936,8.241,8.241,8.0976,7.963,7.8583,7.7268,7.66,7.66,7.66,7.66,7.66,7.7653,7.8176,7.8176,7.9194,7.9165,7.8176,7.8176,7.7559,7.66,7.66,7.66,7.66,7.66,7.66,7.66,7.66,7.66,7.66,7.66,7.66,7.66,7.66,7.66,7.66,7.66,7.66,7.66,7.66,7.66,7.667,7.6995,7.7832,7.9075,8.1019,8.3196,8.5311,8.7201,8.7545,8.7995,8.9921,8.9874,9.0015,9.1906,9.2743,9.299,9.2442,9.1502,9.1507,9.3621,9.2558,9.1583,9.1583,9.3175,9.3701,9.2101,9.3364,9.3661,9.2059,9.096,9.0379,9.0379,8.9402,8.8791,8.8791,8.8791,8.8791,8.8791,8.9826,8.9216,8.6861,8.8983,8.878,8.6512,8.757,8.693,0.0,0.0,0.0,0.0,0.0,0.0,0.0,0.0,0.0,0.0,0.0,4.0852,4.5668,0.0,5.5637,6.1463,6.6787,7.136,7.4728,7.6561,7.7297,7.6658,7.774,7.8525,7.8525,7.9107,7.9521,7.9521,7.8903,7.8234,7.7623,7.6948,7.66,7.66,7.66,7.66,7.66,7.7239,7.8234,7.9521,7.9521,7.9521,7.9492,7.8816,7.7791,7.66,7.66,7.66,7.66,7.66,7.66,7.66,7.66,7.66,7.66,7.66,7.66,7.66,7.66,7.66,7.66,7.66,7.66,7.66,7.66,7.7036,7.753,7.753,7.8496,7.9856,8.1345,8.2727,8.4145,8.5578,8.5029,8.4965,8.7817,8.7194,8.7132,9.0574,9.1516,9.2185,9.3556,9.2446,9.1855,9.3197,9.2585,9.1962,9.1962,9.3661,9.3112,8.8535,9.1738,9.253,8.8436,8.8819,8.9484,8.9955,8.8791,8.8035,8.8035,8.8035,8.8035,8.8035,8.8064,8.7094,8.5146,8.5854,8.5185,8.3324,8.3964,8.3556,0.0,0.0,0.0,0.0,0.0,0.0,0.0,0.0,0.0,0.0,0.0,0.0,0.0,0.0,0.0,5.4242,6.137,6.7581,7.1135,7.3371,7.4835,7.5402,7.5698,7.5844,7.5844,7.6076,7.6222,7.6222,7.6454,7.6483,7.6222,7.6454,7.66,7.66,7.66,7.66,7.66,7.7094,7.8409,8.0481,0.0,0.0,8.0423,7.9143,7.7791,7.66,7.66,7.66,7.66,7.66,7.66,7.66,7.6861,7.6948,7.7007,7.7239,7.7152,7.6948,7.6948,7.6803,7.66,7.66,7.66,7.6629,7.689,7.7675,0.0,7.8845,7.987,8.1092,8.2148,8.2614,8.3013,8.3954,8.2306,8.1594,8.5652,8.4553,8.4265,8.9279,9.0321,9.1219,9.3858,9.2166,9.0294,8.9602,8.969,8.9756,8.9756,9.2489,9.2099,8.6197,9.1214,9.255,8.673,8.7302,8.838,8.9583,8.7449,8.5827,8.5098,8.5069,8.4749,8.3993,8.3237,8.2646,8.2326,8.1878,8.1121,8.0016,7.6454,7.5757,0.0,0.0,0.0,0.0,0.0,0.0,0.0,0.0,0.0,0.0,0.0,0.0,0.0,0.0,0.0,0.0,5.5247,6.1667,6.9446,6.887,6.8593,7.1269,7.2505,7.3174,7.3174,7.4163,7.4831,7.4831,7.5902,7.6076,7.4919,7.5995,0.0,0.0,0.0,7.66,7.66,7.8874,8.019,8.0481,8.1508,8.1442,8.0423,7.9143,7.7791,7.66,7.66,7.66,7.66,7.66,7.66,7.6716,7.7856,7.8321,7.8467,7.9638,7.9281,7.8321,7.8321,0.0,0.0,7.66,7.66,7.6803,7.7972,7.8409,7.8758,7.9958,8.118,8.2236,8.2381,8.3178,8.4012,8.4119,8.2306,8.1217,8.394,8.4321,8.4972,8.7831,9.0178,9.1871,9.2239,8.8328,8.4246,8.1328,8.1507,8.1913,8.1913,8.8199,9.2071,9.0721,0.0,0.0,9.402,8.8539,8.62,8.8149,8.2593,7.7819,7.4575,7.4453,7.2854,6.9483,7.0411,7.2505,7.5733,7.7885,7.8903,7.8351,6.2011,5.8913,0.0,0.0,0.0,0.0,0.0,0.0,0.0,0.0,0.0,0.0,0.0,0.0,0.0,0.0,0.0,0.0,4.9118,5.4729,6.0018,6.2034,6.4404,6.8218,6.9771,6.9849,6.8037,6.9623,7.0358,6.93,7.1415,7.2825,7.3053,7.4569,7.582,7.657,7.66,7.66,7.66,7.8409,8.0103,8.1624,8.1383,8.1421,8.1566,7.9456,7.7791,7.66,7.66,7.66,7.66,7.66,7.66,0.0,0.0,0.0,0.0,0.0,7.7885,7.7384,7.7384,7.7036,7.66,7.66,7.66,7.6832,7.8147,7.9049,7.9958,8.1209,8.2518,8.344,8.344,8.3809,8.4148,8.4148,8.2858,8.2082,8.3809,8.4216,8.4768,8.6581,8.8413,0.0,8.8704,8.7416,8.6293,8.5704,8.6523,8.7205,8.7205,9.2137,9.3873,8.9371,9.5598,9.7905,9.2495,9.1133,0.0,0.0,0.0,8.3028,7.9521,7.87,0.0,0.0,0.0,0.0,0.0,0.0,0.0,0.0,5.3782,5.1871,0.0,0.0,0.0,0.0,0.0,0.0,0.0,0.0,0.0,0.0,0.0,0.0,0.0,0.0,0.0,0.0,4.2827,4.7932,5.0877,5.5238,5.9432,6.2961,6.5674,6.5805,6.2208,6.4308,6.5351,6.4024,6.6644,6.9021,7.0763,7.2445,7.4211,7.5989,7.6082,7.6222,7.66,7.7885,7.9492,8.1325,8.0394,8.0423,8.1267,7.9019,7.7646,7.7094,7.6745,7.6774,7.7094,7.6745,7.66,7.6541,7.6193,7.6251,7.6629,7.7007,7.7326,7.753,7.6832,7.6105,7.5524,7.5524,7.5524,7.5757,7.7071,7.8648,8.0219,8.1537,8.2975,8.4148,8.4148,8.3954,8.3664,8.3664,8.2518,8.1674,8.2879,8.314,8.3518,8.4865,8.5563,8.5331,8.3324,8.4367,8.5386,8.5251,8.6986,0.0,8.9559,9.3619,9.4735,9.0394,9.6013,9.8014,9.2857,9.2472,9.2138,9.1361,8.8232,8.5963,8.5017,8.1301,7.8794,7.7863,6.9687,6.407,0.0,0.0,0.0,0.0,0.0,0.0,0.0,0.0,0.0,0.0,0.0,0.0,0.0,0.0,0.0,0.0,0.0,0.0,0.0,0.0,0.0,0.0,0.0,0.0,4.4429,4.9047,5.2628,5.3923,5.9243,6.0836,5.5954,5.8525,6.0451,6.0419,6.2601,6.5189,6.8019,6.9429,7.1535,7.4594,7.4686,7.5297,7.657,7.7885,7.8583,7.8641,7.8612,7.8612,7.8612,7.7268,7.7297,7.8409,7.7123,7.7297,7.838,7.7094,7.66,7.6454,7.518,7.55,7.6745,7.8002,7.9252,7.9987,7.7443,7.4943,7.2825,7.2825,7.2825,7.3086,7.4366,7.6547,7.8845,8.0161,8.2306,8.4148,8.4148,8.3324,8.2469,8.2469,8.051,7.9019,8.0307,8.0598,8.0976,8.2294,8.1529,7.9492,7.5646,7.7135,7.7533,7.3798,7.6624,0.0,8.3452,8.8899,9.3693,9.6721,9.9791,10.0755,9.8628,9.1388,8.8319,9.1526,8.3854,8.156,8.6764,7.6885,7.1287,7.1258,6.4768,5.9757,5.6376,0.0,0.0,0.0,0.0,0.0,0.0,0.0,0.0,0.0,0.0,0.0,0.0,0.0,0.0,0.0,0.0,0.0,0.0,0.0,0.0,0.0,0.0,0.0,0.0,4.4762,4.913,5.2005,5.4244,5.3783,4.9457,5.145,5.2547,5.1333,5.5092,5.8825,6.2074,6.3785,6.6239,6.9662,7.091,7.1763,7.2189,7.4714,7.6373,7.7239,7.7239,7.7675,7.8496,7.7181,7.6832,7.721,7.6774,7.6832,7.7158,7.5849,7.4802,7.3954,7.3552,7.2903,7.2414,7.4072,7.42,7.3566,7.3933,7.3431,7.2675,7.2675,7.2675,7.297,7.425,7.5273,7.6402,7.8554,8.0415,8.1928,8.2809,8.2693,8.241,8.241,8.1092,7.9958,8.0365,8.0481,8.0598,8.1034,7.7368,7.376,7.2451,7.6411,7.9098,7.6921,8.2076,8.7053,8.9442,9.2606,9.5567,9.8043,9.9482,9.9962,9.9288,9.6756,9.4763,9.376,8.98,8.7433,8.712,8.0778,7.7659,7.8539,7.297,6.4127,5.1907,0.0,0.0,0.0,0.0,0.0,0.0,0.0,0.0,0.0,0.0,0.0,0.0,0.0,0.0,0.0,0.0,0.0,0.0,0.0,0.0,0.0,0.0,0.0,0.0,0.0,0.0,4.7343,4.9193,0.0,4.2652,4.456,4.5313,4.3328,4.7286,5.157,5.5545,5.723,6.0318,6.5231,6.6493,6.7716,6.901,7.1665,7.3388,7.425,7.4899,7.5611,7.6431,7.5553,7.5437,7.5844,7.5408,7.5437,7.5727,7.4017,7.175,6.9215,6.8388,6.6519,6.4479,6.6015,6.7069,6.7798,6.8612,6.9988,7.1214,7.0071,6.8657,6.7373,6.7245,6.7045,6.744,7.0445,7.3175,7.5797,7.8315,7.9288,7.9645,7.9645,7.8648,7.7717,7.7717,7.7397,7.6901,7.631,7.2761,6.898,6.6094,7.0984,7.5186,7.4853,8.0707,8.7123,9.2546,9.4358,9.6167,9.8719,9.8861,9.8769,9.8769,9.8278,9.6838,9.4077,9.2222,8.9733,8.6523,8.257,7.9783,7.8328,7.2305,6.2995,0.0,0.0,0.0,0.0,0.0,0.0,0.0,0.0,0.0,0.0,0.0,0.0,0.0,0.0,0.0,0.0,0.0,0.0,0.0,0.0,0.0,0.0,0.0,0.0,0.0,0.0,0.0,4.0303,4.404,0.0,0.0,0.0,0.0,3.6607,3.946,4.3459,4.8463,4.9707,5.3623,6.1013,6.1334,6.3058,6.657,6.8469,6.9459,6.9572,7.1414,7.2297,7.2441,7.2441,7.3146,7.4351,7.3098,7.3339,7.4308,7.1243,6.71,6.2425,5.9994,5.6739,5.3534,5.4738,5.8289,6.2442,6.1731,6.4446,6.7733,6.4659,6.0817,5.6851,5.4115,5.2683,0.0,0.0,6.0969,6.5957,7.0877,7.3174,7.4255,7.4575,7.3639,7.2675,7.2675,7.1778,7.0279,0.0,6.7324,6.4493,5.6488,0.0,6.5522,6.7032,7.229,8.03,9.2019,9.3677,9.521,9.9016,9.8144,9.7287,9.7287,9.604,9.4456,9.2634,9.0772,8.8315,8.5267,8.1781,7.6961,7.0705,6.282,0.0,0.0,0.0,0.0,0.0,0.0,0.0,0.0,0.0,0.0,0.0,0.0,0.0,0.0,0.0,0.0,0.0,0.0,0.0,0.0,0.0,0.0,0.0,0.0,0.0,0.0,3.4449,3.8277,4.1166,3.9009,3.5838,0.0,0.0,0.0,0.0,0.0,0.0,3.9901,4.0373,4.3623,5.0376,5.1889,5.4178,5.7527,6.0148,6.2327,6.407,6.5401,6.6976,6.8675,6.8675,6.9557,7.1158,7.0811,7.165,7.2343,6.1434,5.6317,5.5041,5.1714,4.8049,4.5011,4.822,4.8885,4.8829,5.314,5.596,5.7316,5.4893,5.3314,5.1593,4.7328,0.0,0.0,0.0,0.0,5.4695,6.2785,6.6207,6.8755,7.3527,7.3639,7.2675,7.2675,7.1778,6.8126,0.0,5.5029,5.135,4.4322,0.0,0.0,0.0,6.5305,7.56,8.6695,9.0572,9.3752,9.7509,9.6632,9.5777,9.5777,9.5481,9.4456,9.2634,8.9892,8.7393,8.5237,7.6654,6.98,6.5263,0.0,0.0,0.0,0.0,0.0,0.0,0.0,0.0,0.0,0.0,0.0,0.0,0.0,0.0,0.0,0.0,0.0,0.0,0.0,0.0,0.0,0.0,0.0,0.0,0.0,0.0,0.0,3.0358,3.4155,3.6676,3.3541,3.0132,0.0,0.0,0.0,0.0,0.0,0.0,0.0,0.0,0.0,3.9984,4.1487,4.4152,4.8213,5.1976,5.4947,5.717,5.9614,6.1479,6.2742,6.2742,6.3826,6.5642,6.4203,6.3632,6.3037,5.4811,4.9397,4.5921,0.0,0.0,0.0,0.0,3.7789,3.8443,4.2019,4.5248,0.0,4.4564,0.0,0.0,0.0,0.0,0.0,0.0,0.0,0.0,0.0,0.0,6.4541,6.9324,6.9916,6.9218,6.8666,6.3431,5.6449,0.0,4.4648,4.0578,3.3218,0.0,0.0,0.0,0.0,6.8395,8.0328,8.7124,9.2334,9.6066,9.5744,9.5251,9.5251,9.5251,9.4116,9.1498,8.8618,8.4812,7.9886,7.0638,6.2442,0.0,0.0,0.0,0.0,0.0,0.0,0.0,0.0,0.0,0.0,0.0,0.0,0.0,0.0,0.0,0.0,0.0,0.0,0.0,0.0,0.0,0.0,0.0,0.0,0.0,0.0,0.0,0.0,0.0,2.9719,3.0447,0.0,0.0,0.0,0.0,0.0,0.0,0.0,0.0,0.0,0.0,0.0,0.0,0.0,3.398,3.8824,4.3369,4.6695,4.8824,5.2669,5.4658,5.495,5.495,5.6273,5.8355,5.3921,0.0,5.0636,4.8296,0.0,0.0,0.0,0.0,0.0,0.0,0.0,0.0,0.0,0.0,0.0,0.0,0.0,0.0,0.0,0.0,0.0,0.0,0.0,0.0,0.0,0.0,5.9368,6.2271,6.3576,6.3344,0.0,5.0573,4.1236,3.7924,3.5384,0.0,0.0,0.0,0.0,0.0,0.0,0.0,7.3914,8.3915,9.1201,9.4856,9.5251,9.5251,9.5251,9.5251,9.3549,8.9562,8.5909,8.0068,7.153,6.3634,0.0,0.0,0.0,0.0,0.0,0.0,0.0,0.0,0.0,0.0,0.0,0.0,0.0,0.0,0.0,0.0,0.0,0.0,0.0,0.0,0.0,0.0,0.0,0.0,0.0,0.0,0.0,0.0,0.0,0.0,0.0,0.0,0.0,0.0,0.0,0.0,0.0,0.0,0.0,0.0,0.0,0.0,0.0,0.0,0.0,0.0,0.0,0.0,0.0,0.0,4.0348,4.2679,4.4425,4.4425,4.6474,4.9397,3.8688,3.7872,4.3361,3.4242,0.0,0.0,0.0,0.0,0.0,0.0,0.0,0.0,0.0,0.0,0.0,0.0,0.0,0.0,0.0,0.0,0.0,0.0,0.0,0.0,0.0,0.0,0.0,0.0,5.5336,5.587,0.0,0.0,0.0,0.0,0.0,0.0,0.0,0.0,0.0,0.0,0.0,0.0,6.9825,8.2226,9.1201,9.4856,9.5251,9.5251,9.5251,9.5251,9.2768,8.6978,7.8202,7.0207,0.0,0.0,0.0,0.0,0.0,0.0,0.0,0.0,0.0,0.0,0.0,0.0,0.0,0.0,0.0,0.0,0.0,0.0,0.0,0.0,0.0,0.0,0.0,0.0,0.0,0.0,0.0,0.0,0.0,0.0,0.0,0.0,0.0,0.0,0.0,0.0,0.0,0.0,0.0,0.0,0.0,0.0,0.0,0.0,0.0,0.0,0.0,0.0,0.0,0.0,0.0,0.0,0.0,0.0,0.0,0.0,0.0,0.0,0.0,2.8365,0.0,0.0,0.0,0.0,0.0,0.0,0.0,0.0,0.0,0.0,0.0,0.0,0.0,0.0,0.0,0.0,0.0,0.0,0.0,0.0,0.0,0.0,0.0,0.0,0.0,0.0,0.0,0.0,0.0,0.0,0.0,0.0,0.0,0.0,0.0,0.0,0.0,0.0,0.0,0.0,6.3761,7.9565,9.1201,9.4856,9.5251,9.5251,9.5251,9.4564,9.0182,8.0941,7.2852,0.0,0.0,0.0,0.0,0.0,0.0,0.0,0.0,0.0,0.0,0.0,0.0,0.0,0.0,0.0,0.0,0.0,0.0,0.0,0.0,0.0,0.0,0.0,0.0,0.0,0.0,0.0,0.0,0.0,0.0,0.0,0.0,0.0,0.0,0.0,0.0,0.0,0.0,0.0,0.0,0.0,0.0,0.0,0.0,0.0,0.0,0.0,0.0,0.0,0.0,0.0,0.0,0.0,0.0,0.0,0.0,0.0,0.0,0.0,2.5895,0.0,0.0,0.0,0.0,0.0,0.0,0.0,0.0,0.0,0.0,0.0,0.0,0.0,0.0,0.0,0.0,0.0,0.0,0.0,0.0,0.0,0.0,0.0,0.0,0.0,0.0,0.0,0.0,0.0,0.0,0.0,0.0,0.0,0.0,0.0,0.0,0.0,0.0,0.0,0.0,0.0,5.8507,7.6986,9.0721,9.4301,9.5008,9.5251,9.5251,9.3939,8.7741,7.5181,6.7613,0.0,0.0,0.0,0.0,0.0,0.0,0.0,0.0,0.0,0.0,0.0,0.0,0.0,0.0,0.0,0.0,0.0,0.0,0.0,0.0,0.0,0.0,0.0,0.0,0.0,0.0,0.0,0.0,0.0,0.0,0.0,0.0,0.0,0.0,0.0,0.0,0.0,0.0,0.0,0.0,0.0,0.0,0.0,0.0,0.0,0.0,0.0,0.0,0.0,0.0,0.0,0.0,0.0,0.0,0.0,0.0,0.0,0.0,0.0,0.0,0.0,0.0,0.0,0.0,0.0,0.0,0.0,0.0,0.0,0.0,0.0,0.0,0.0,0.0,0.0,0.0,0.0,0.0,0.0,0.0,0.0,0.0,0.0,0.0,0.0,0.0,0.0,0.0,0.0,0.0,0.0,0.0,0.0,0.0,0.0,0.0,0.0,0.0,0.0,0.0,0.0,5.661,7.5447,8.9254,9.2442,9.4272,9.5251,9.5251,9.3939,8.7005,7.2596,0.0,0.0,0.0,0.0,0.0,0.0,0.0,0.0,0.0,0.0,0.0,0.0,0.0,0.0,0.0,0.0,0.0,0.0,0.0,0.0,0.0,0.0,0.0,0.0,0.0,0.0,0.0,0.0,0.0,0.0,0.0,0.0,0.0,0.0,0.0,0.0,0.0,0.0,0.0,0.0,0.0,0.0,0.0,0.0,0.0,0.0,0.0,0.0,0.0,0.0,0.0,0.0,0.0,0.0,0.0,0.0,0.0,0.0,0.0,0.0,0.0,0.0,0.0,0.0,0.0,0.0,0.0,0.0,0.0,0.0,0.0,0.0,0.0,0.0,0.0,0.0,0.0,0.0,0.0,0.0,0.0,0.0,0.0,0.0,0.0,0.0,0.0,0.0,0.0,0.0,0.0,0.0,0.0,0.0,0.0,0.0,0.0,0.0,0.0,0.0,0.0,0.0,5.4841,7.3587,8.7854,9.2088,9.3207,9.3729,9.3949,9.2654,8.4122,6.6062,0.0,0.0,0.0,0.0,0.0,0.0,0.0,0.0,0.0,0.0,0.0,0.0,0.0,0.0,0.0,0.0,0.0,0.0,0.0,0.0,0.0,0.0,0.0,0.0,0.0,0.0,0.0,0.0,0.0,0.0,0.0,0.0,0.0,0.0,0.0,0.0,0.0,0.0,0.0,0.0,0.0,0.0,0.0,0.0,0.0,0.0,0.0,0.0,0.0,0.0,0.0,0.0,0.0,0.0,0.0,0.0,0.0,0.0,0.0,0.0,0.0,0.0,0.0,0.0,0.0,0.0,0.0,0.0,0.0,0.0,0.0,0.0,0.0,0.0,0.0,0.0,0.0,0.0,0.0,0.0,0.0,0.0,0.0,0.0,0.0,0.0,0.0,0.0,0.0,0.0,0.0,0.0,0.0,0.0,0.0,0.0,0.0,0.0,0.0,0.0,0.0,0.0,5.2218,7.1897,8.6859,9.0738,9.2056,9.2799,9.3095,9.0221,8.0481,6.1813,0.0,0.0,0.0,0.0,0.0,0.0,0.0,0.0,0.0,0.0,0.0,0.0,0.0,0.0,0.0,0.0,0.0,0.0,0.0,0.0,0.0,0.0,0.0,0.0,0.0,0.0,0.0,0.0,0.0,0.0,0.0,0.0,0.0,0.0,0.0,0.0,0.0,0.0,0.0,0.0,0.0,0.0,0.0,0.0,0.0,0.0,0.0,0.0,0.0,0.0,0.0,0.0,0.0,0.0,0.0,0.0,0.0,0.0,0.0,0.0,0.0,0.0,0.0,0.0,0.0,0.0,0.0,0.0,0.0,0.0,0.0,0.0,0.0,0.0,0.0,0.0,0.0,0.0,0.0,0.0,0.0,0.0,0.0,0.0,0.0,0.0,0.0,0.0,0.0,0.0,0.0,0.0,0.0,0.0,0.0,0.0,0.0,0.0,0.0,0.0,0.0,0.0,4.8396,7.0541,8.6436,8.7775,9.1019,9.3121,9.3117,8.6472,7.6139,0.0,0.0,0.0,0.0,0.0,0.0,0.0,0.0,0.0,0.0,0.0,0.0,0.0,0.0,0.0,0.0,0.0,0.0,0.0,0.0,0.0,0.0,0.0,0.0,0.0,0.0,0.0,0.0,0.0,0.0,0.0,0.0,0.0,0.0,0.0,0.0,0.0,0.0,0.0,0.0,0.0,0.0,0.0,0.0,0.0,0.0,0.0,0.0,0.0,0.0,0.0,0.0,0.0,0.0,0.0,0.0,0.0,0.0,0.0,0.0,0.0,0.0,0.0,0.0,0.0,0.0,0.0,0.0,0.0,0.0,0.0,0.0,0.0,0.0,0.0,0.0,0.0,0.0,0.0,0.0,0.0,0.0,0.0,0.0,0.0,0.0,0.0,0.0,0.0,0.0,0.0,0.0,0.0,0.0,0.0,0.0,0.0,0.0,0.0,0.0,0.0,0.0,0.0,4.7475,6.1836,7.4994,8.5295,8.7405,8.8631,9.0087,8.8083,7.9272,6.1767,0.0,0.0,0.0,0.0,0.0,0.0,0.0,0.0,0.0,0.0,0.0,0.0,0.0,0.0,0.0,0.0,0.0,0.0,0.0,0.0,0.0,0.0,0.0,0.0,0.0,0.0,0.0,0.0,0.0,0.0,0.0,0.0,0.0,0.0,0.0,0.0,0.0,0.0,0.0,0.0,0.0,0.0,0.0,0.0,0.0,0.0,0.0,0.0,0.0,0.0,0.0,0.0,0.0,0.0,0.0,0.0,0.0,0.0,0.0,0.0,0.0,0.0,0.0,0.0,0.0,0.0,0.0,0.0,0.0,0.0,0.0,0.0,0.0,0.0,0.0,0.0,0.0,0.0,0.0,0.0,0.0,0.0,0.0,0.0,0.0,0.0,0.0,0.0,0.0,0.0,0.0,0.0,0.0,0.0,0.0,0.0,0.0,0.0,0.0,0.0,0.0,0.0,0.0,5.9713,7.2544,8.3803,8.5576,8.6733,8.8681,8.6834,7.8417,6.1701,0.0,0.0,0.0,0.0,0.0,0.0,0.0,0.0,0.0,0.0,0.0,0.0,0.0,0.0,0.0,0.0,0.0,0.0,0.0,0.0,0.0,0.0,0.0,0.0,0.0,0.0,0.0,0.0,0.0,0.0,0.0,0.0,0.0,0.0,0.0,0.0,0.0,0.0,0.0,0.0,0.0,0.0,0.0,0.0,0.0,0.0,0.0,0.0,0.0,0.0,0.0,0.0,0.0,0.0,0.0,0.0,0.0,0.0,0.0,0.0,0.0,0.0,0.0,0.0,0.0,0.0,0.0,0.0,0.0,0.0,0.0,0.0,0.0,0.0,0.0,0.0,0.0,0.0,0.0,0.0,0.0,0.0,0.0,0.0,0.0,0.0,0.0,0.0,0.0,0.0,0.0,0.0,0.0,0.0,0.0,0.0,0.0,0.0,0.0,0.0,0.0,0.0,0.0,6.2231,7.6207,8.2749,8.4975,8.6668,8.8362,8.3598,7.4866,6.1503,5.1146,0.0,0.0,0.0,0.0,0.0,0.0,0.0,0.0,0.0,0.0,0.0,0.0,0.0,0.0,0.0,0.0,0.0,0.0,0.0,0.0,0.0,0.0,0.0,0.0,0.0,0.0,0.0,0.0,0.0,0.0,0.0,0.0,0.0,0.0,0.0,0.0,0.0,0.0,0.0,0.0,0.0,0.0,0.0,0.0,0.0,0.0,0.0,0.0,0.0,0.0,0.0,0.0,0.0,0.0,0.0,0.0,0.0,0.0,0.0,0.0,0.0,0.0,0.0,0.0,0.0,0.0,0.0,0.0,0.0,0.0,0.0,0.0,0.0,0.0,0.0,0.0,0.0,0.0,0.0,0.0,0.0,0.0,0.0,0.0,0.0,0.0,0.0,0.0,0.0,0.0,0.0,0.0,0.0,0.0,0.0,0.0,0.0,0.0,0.0,0.0,0.0,0.0,5.5161,6.5549,7.8823,8.1725,8.3431,8.5102,8.5186,7.8113,6.1681,5.5117,0.0,0.0,0.0,0.0,0.0,0.0,0.0,0.0,0.0,0.0,0.0,0.0,0.0,0.0,0.0,0.0,0.0,0.0,0.0,0.0,0.0,0.0,0.0,0.0,0.0,0.0,0.0,0.0,0.0,0.0,0.0,0.0,0.0,0.0,0.0,0.0,0.0,0.0,0.0,0.0,0.0,0.0,0.0,0.0,0.0,0.0,0.0,0.0,0.0,0.0,0.0,0.0,0.0,0.0,0.0,0.0,0.0,0.0,0.0,0.0,0.0,0.0,0.0,0.0,0.0,0.0,0.0,0.0,0.0,0.0,0.0,0.0,0.0,0.0,0.0,0.0,0.0,0.0,0.0,0.0,0.0,0.0,0.0,0.0,0.0,0.0,0.0,0.0,0.0,0.0,0.0,0.0,0.0,0.0,0.0,0.0,0.0,0.0,0.0,0.0,0.0,0.0,4.4365,5.713,7.6216,7.9585,8.148,8.3943,8.4411,7.7716,6.1642,5.6502,0.0,0.0,0.0,0.0,0.0,0.0,0.0,0.0,0.0,0.0,0.0,0.0,0.0,0.0,0.0,0.0,0.0,0.0,0.0,0.0,0.0,0.0,0.0,0.0,0.0,0.0,0.0,0.0,0.0,0.0,0.0,0.0,0.0,0.0,0.0,0.0,0.0,0.0,0.0,0.0,0.0,0.0,0.0,0.0,0.0,0.0,0.0,0.0,0.0,0.0,0.0,0.0,0.0,0.0,0.0,0.0,0.0,0.0,0.0,0.0,0.0,0.0,0.0,0.0,0.0,0.0,0.0,0.0,0.0,0.0,0.0,0.0,0.0,0.0,0.0,0.0,0.0,0.0,0.0,0.0,0.0,0.0,0.0,0.0,0.0,0.0,0.0,0.0,0.0,0.0,0.0,0.0,0.0,0.0,0.0,0.0,0.0,0.0,0.0,0.0,0.0,0.0,0.0,5.06,7.1304,7.6516,7.9882,8.3179,8.2404,7.5617,6.1242,0.0,0.0,0.0,0.0,0.0,0.0,0.0,0.0,0.0,0.0,0.0,0.0,0.0,0.0,0.0,0.0,0.0,0.0,0.0,0.0,0.0,0.0,0.0,0.0,0.0,0.0,0.0,0.0,0.0,0.0,0.0,0.0,0.0,0.0,0.0,0.0,0.0,0.0,0.0,0.0,0.0,0.0,0.0,0.0,0.0,0.0,0.0,0.0,0.0,0.0,0.0,0.0,0.0,0.0,0.0,0.0,0.0,0.0,0.0,0.0,0.0,0.0,0.0,0.0,0.0,0.0,0.0,0.0,0.0,0.0,0.0,0.0,0.0,0.0,0.0,0.0,0.0,0.0,0.0,0.0,0.0,0.0,0.0,0.0,0.0,0.0,0.0,0.0,0.0,0.0,0.0,0.0,0.0,0.0,0.0,0.0,0.0,0.0,0.0,0.0,0.0,0.0,0.0,0.0,4.6699,5.5792,6.8201,7.6995,7.9986,8.0302,7.4218,5.9746,0.0,0.0,0.0,0.0,0.0,0.0,0.0,0.0,0.0,0.0,0.0,0.0,0.0,0.0]}]]]